| time (UTC) | temp F | wind direction | speed knots | gust knots | rain 1hr in | rain 24hr in | rain mn in | humidity % | barometer mb |
| 20260506043002 | 77 | 152 | 1.7 | 8.7 | 0.00 | 0.00 | 0.00 | 91 | 1007.6 |
| 20260506042903 | 77 | 173 | 3.5 | 8.7 | 0.00 | 0.00 | 0.00 | 91 | 1007.6 |
| 20260506042802 | 77 | 173 | 3.5 | 8.7 | 0.00 | 0.00 | 0.00 | 91 | 1007.6 |
| 20260506042702 | 77 | 111 | 3.5 | 8.7 | 0.00 | 0.00 | 0.00 | 91 | 1007.6 |
| 20260506042603 | 77 | 142 | 4.3 | 8.7 | 0.00 | 0.00 | 0.00 | 91 | 1007.5 |
| 20260506042502 | 77 | 183 | 4.3 | 10.4 | 0.00 | 0.00 | 0.00 | 91 | 1007.5 |
| 20260506042403 | 77 | 179 | 4.3 | 10.4 | 0.00 | 0.00 | 0.00 | 91 | 1007.5 |
| 20260506042305 | 77 | 148 | 3.5 | 10.4 | 0.00 | 0.00 | 0.00 | 91 | 1007.5 |
| 20260506042203 | 77 | 158 | 2.6 | 10.4 | 0.00 | 0.00 | 0.00 | 91 | 1007.5 |
| 20260506042102 | 77 | 214 | 2.6 | 10.4 | 0.00 | 0.00 | 0.00 | 91 | 1007.5 |
| 20260506042004 | 77 | 196 | 3.5 | 10.4 | 0.00 | 0.00 | 0.00 | 90 | 1007.5 |
| 20260506041902 | 77 | 157 | 3.5 | 10.4 | 0.00 | 0.00 | 0.00 | 90 | 1007.5 |
| 20260506041803 | 77 | 185 | 3.5 | 10.4 | 0.00 | 0.00 | 0.00 | 90 | 1007.4 |
| 20260506041702 | 77 | 148 | 5.2 | 10.4 | 0.00 | 0.00 | 0.00 | 90 | 1007.5 |
| 20260506041603 | 77 | 173 | 5.2 | 10.4 | 0.00 | 0.00 | 0.00 | 90 | 1007.5 |
| 20260506041504 | 77 | 161 | 3.5 | 12.2 | 0.00 | 0.00 | 0.00 | 90 | 1007.4 |
| 20260506041403 | 77 | 209 | 4.3 | 12.2 | 0.00 | 0.00 | 0.00 | 90 | 1007.5 |
| 20260506041303 | 77 | 158 | 4.3 | 12.2 | 0.00 | 0.00 | 0.00 | 90 | 1007.5 |
| 20260506041202 | 77 | 190 | 5.2 | 12.2 | 0.00 | 0.00 | 0.00 | 90 | 1007.4 |
| 20260506041102 | 77 | 145 | 4.3 | 12.2 | 0.00 | 0.00 | 0.00 | 90 | 1007.4 |
| 20260506041003 | 78 | 171 | 4.3 | 12.2 | 0.00 | 0.00 | 0.00 | 90 | 1007.4 |
| 20260506040903 | 78 | 176 | 6.1 | 12.2 | 0.00 | 0.00 | 0.00 | 89 | 1007.4 |
| 20260506040803 | 78 | 152 | 6.1 | 13.0 | 0.00 | 0.00 | 0.00 | 89 | 1007.4 |
| 20260506040703 | 78 | 171 | 7.0 | 13.0 | 0.00 | 0.00 | 0.00 | 89 | 1007.4 |
| 20260506040603 | 78 | 144 | 6.1 | 13.0 | 0.00 | 0.00 | 0.00 | 89 | 1007.4 |
| 20260506040503 | 78 | 183 | 5.2 | 13.0 | 0.00 | 0.00 | 0.00 | 89 | 1007.4 |
| 20260506040402 | 78 | 127 | 4.3 | 13.0 | 0.00 | 0.00 | 0.00 | 89 | 1007.4 |
| 20260506040303 | 78 | 140 | 5.2 | 13.0 | 0.00 | 0.00 | 0.00 | 89 | 1007.4 |
| 20260506040204 | 78 | 213 | 5.2 | 13.0 | 0.00 | 0.00 | 0.00 | 89 | 1007.4 |
| 20260506040002 | 78 | 189 | 7.0 | 13.0 | 0.00 | 0.00 | 0.00 | 89 | 1007.4 |
| 20260506035904 | 78 | 135 | 7.0 | 13.0 | 0.00 | 0.00 | 0.00 | 89 | 1007.4 |
| 20260506035803 | 78 | 152 | 6.1 | 12.2 | 0.00 | 0.00 | 0.00 | 89 | 1007.4 |
| 20260506035701 | 78 | 178 | 5.2 | 12.2 | 0.00 | 0.00 | 0.00 | 89 | 1007.3 |
| 20260506035602 | 78 | 147 | 7.0 | 12.2 | 0.00 | 0.00 | 0.00 | 89 | 1007.4 |
| 20260506035504 | 78 | 149 | 6.1 | 12.2 | 0.00 | 0.00 | 0.00 | 89 | 1007.4 |
| 20260506035402 | 78 | 154 | 5.2 | 12.2 | 0.00 | 0.00 | 0.00 | 89 | 1007.4 |
| 20260506035305 | 78 | 155 | 5.2 | 10.4 | 0.00 | 0.00 | 0.00 | 89 | 1007.4 |
| 20260506035203 | 78 | 152 | 4.3 | 10.4 | 0.00 | 0.00 | 0.00 | 89 | 1007.5 |
| 20260506035103 | 78 | 147 | 5.2 | 10.4 | 0.00 | 0.00 | 0.00 | 89 | 1007.5 |
| 20260506035002 | 78 | 120 | 5.2 | 10.4 | 0.00 | 0.00 | 0.00 | 89 | 1007.4 |
| 20260506034903 | 78 | 185 | 4.3 | 10.4 | 0.00 | 0.00 | 0.00 | 89 | 1007.5 |
| 20260506034804 | 78 | 94 | 4.3 | 11.3 | 0.00 | 0.00 | 0.00 | 89 | 1007.4 |
| 20260506034702 | 78 | 127 | 3.5 | 11.3 | 0.00 | 0.00 | 0.00 | 89 | 1007.4 |
| 20260506034602 | 78 | 199 | 2.6 | 11.3 | 0.00 | 0.00 | 0.00 | 89 | 1007.4 |
| 20260506034503 | 78 | 137 | 3.5 | 11.3 | 0.00 | 0.00 | 0.00 | 89 | 1007.4 |
| 20260506034402 | 78 | 128 | 2.6 | 11.3 | 0.00 | 0.00 | 0.00 | 88 | 1007.3 |
| 20260506034302 | 78 | 54 | 3.5 | 11.3 | 0.00 | 0.00 | 0.00 | 88 | 1007.3 |
| 20260506034204 | 78 | 171 | 5.2 | 11.3 | 0.00 | 0.00 | 0.00 | 88 | 1007.4 |
| 20260506034102 | 78 | 155 | 6.1 | 11.3 | 0.00 | 0.00 | 0.00 | 88 | 1007.3 |
| 20260506034002 | 78 | 157 | 7.0 | 11.3 | 0.00 | 0.00 | 0.00 | 88 | 1007.3 |
| 20260506033902 | 78 | 137 | 4.3 | 11.3 | 0.00 | 0.00 | 0.00 | 88 | 1007.3 |
| 20260506033803 | 78 | 120 | 4.3 | 11.3 | 0.00 | 0.00 | 0.00 | 88 | 1007.3 |
| 20260506033702 | 78 | 65 | 4.3 | 11.3 | 0.00 | 0.00 | 0.00 | 88 | 1007.3 |
| 20260506033603 | 78 | 152 | 3.5 | 11.3 | 0.00 | 0.00 | 0.00 | 88 | 1007.2 |
| 20260506033503 | 78 | 151 | 5.2 | 11.3 | 0.00 | 0.00 | 0.00 | 88 | 1007.3 |
| 20260506033402 | 78 | 178 | 7.0 | 13.0 | 0.00 | 0.00 | 0.00 | 88 | 1007.2 |
| 20260506033301 | 78 | 121 | 6.1 | 13.0 | 0.00 | 0.00 | 0.00 | 88 | 1007.2 |
| 20260506033201 | 78 | 137 | 5.2 | 13.0 | 0.00 | 0.00 | 0.00 | 88 | 1007.2 |
| 20260506033103 | 78 | 183 | 6.1 | 13.0 | 0.00 | 0.00 | 0.00 | 88 | 1007.2 |
| 20260506033002 | 78 | 147 | 5.2 | 13.0 | 0.00 | 0.00 | 0.00 | 88 | 1007.1 |
| 20260506032859 | 78 | 186 | 4.3 | 13.0 | 0.00 | 0.00 | 0.00 | 88 | 1007.1 |
| 20260506032758 | 78 | 89 | 5.2 | 13.0 | 0.00 | 0.00 | 0.00 | 88 | 1007.1 |
| 20260506032656 | 78 | 155 | 5.2 | 13.0 | 0.00 | 0.00 | 0.00 | 88 | 1007.1 |
| 20260506032555 | 78 | 176 | 5.2 | 13.0 | 0.00 | 0.00 | 0.00 | 88 | 1007.0 |
| 20260506032453 | 78 | 168 | 5.2 | 13.0 | 0.00 | 0.00 | 0.00 | 88 | 1007.0 |
| 20260506032353 | 78 | 120 | 3.5 | 12.2 | 0.00 | 0.00 | 0.00 | 88 | 1007.0 |
| 20260506032250 | 78 | 124 | 3.5 | 12.2 | 0.00 | 0.00 | 0.00 | 88 | 1007.0 |
| 20260506032148 | 78 | 213 | 3.5 | 12.2 | 0.00 | 0.00 | 0.00 | 88 | 1007.0 |
| 20260506032047 | 78 | 120 | 4.3 | 12.2 | 0.00 | 0.00 | 0.00 | 88 | 1007.0 |
| 20260506031946 | 78 | 169 | 5.2 | 12.2 | 0.00 | 0.00 | 0.00 | 88 | 1007.0 |
| 20260506031845 | 78 | 83 | 5.2 | 12.2 | 0.00 | 0.00 | 0.00 | 88 | 1006.9 |
| 20260506031743 | 78 | 195 | 4.3 | 12.2 | 0.00 | 0.00 | 0.00 | 88 | 1006.9 |
| 20260506031642 | 78 | 243 | 5.2 | 10.4 | 0.00 | 0.00 | 0.00 | 88 | 1007.0 |
| 20260506031538 | 78 | 173 | 5.2 | 10.4 | 0.00 | 0.00 | 0.00 | 87 | 1006.9 |
| 20260506031438 | 78 | 178 | 5.2 | 14.8 | 0.00 | 0.00 | 0.00 | 87 | 1006.9 |
| 20260506031337 | 78 | 148 | 4.3 | 14.8 | 0.00 | 0.00 | 0.00 | 87 | 1006.9 |
| 20260506031236 | 78 | 172 | 5.2 | 14.8 | 0.00 | 0.00 | 0.00 | 87 | 1006.9 |
| 20260506031130 | 78 | 172 | 6.1 | 14.8 | 0.00 | 0.00 | 0.00 | 87 | 1006.8 |
| 20260506031032 | 78 | 189 | 5.2 | 14.8 | 0.00 | 0.00 | 0.00 | 87 | 1006.8 |
| 20260506030931 | 78 | 149 | 4.3 | 14.8 | 0.00 | 0.00 | 0.00 | 87 | 1006.9 |
| 20260506030832 | 78 | 148 | 4.3 | 14.8 | 0.00 | 0.00 | 0.00 | 87 | 1006.9 |
| 20260506030730 | 78 | 141 | 4.3 | 14.8 | 0.00 | 0.00 | 0.00 | 87 | 1006.9 |
| 20260506030631 | 78 | 142 | 5.2 | 14.8 | 0.00 | 0.00 | 0.00 | 87 | 1007.0 |
| 20260506030530 | 78 | 189 | 5.2 | 14.8 | 0.00 | 0.00 | 0.00 | 87 | 1007.0 |
| 20260506030429 | 78 | 149 | 5.2 | 13.9 | 0.00 | 0.00 | 0.00 | 87 | 1007.0 |
| 20260506030327 | 78 | 192 | 6.1 | 13.9 | 0.00 | 0.00 | 0.00 | 87 | 1007.0 |
| 20260506030226 | 78 | 172 | 5.2 | 13.9 | 0.00 | 0.00 | 0.00 | 87 | 1006.9 |
| 20260506030124 | 78 | 202 | 7.0 | 13.9 | 0.00 | 0.00 | 0.00 | 87 | 1006.9 |
| 20260506030023 | 78 | 197 | 7.0 | 13.9 | 0.00 | 0.00 | 0.00 | 87 | 1006.9 |
| 20260506025922 | 78 | 203 | 6.1 | 13.9 | 0.00 | 0.00 | 0.00 | 87 | 1006.9 |
| 20260506025821 | 78 | 152 | 7.0 | 13.9 | 0.00 | 0.00 | 0.00 | 87 | 1006.9 |
| 20260506025721 | 78 | 155 | 7.8 | 13.9 | 0.00 | 0.00 | 0.00 | 87 | 1006.9 |
| 20260506025623 | 78 | 189 | 6.1 | 13.0 | 0.00 | 0.00 | 0.00 | 87 | 1006.8 |
| 20260506025521 | 78 | 140 | 4.3 | 13.0 | 0.00 | 0.00 | 0.00 | 87 | 1006.9 |
| 20260506025421 | 78 | 154 | 4.3 | 13.0 | 0.00 | 0.00 | 0.00 | 87 | 1006.8 |
| 20260506025322 | 78 | 220 | 4.3 | 13.0 | 0.00 | 0.00 | 0.00 | 87 | 1006.9 |
| 20260506025222 | 78 | 182 | 2.6 | 13.0 | 0.00 | 0.00 | 0.00 | 87 | 1006.8 |
| 20260506025121 | 78 | 159 | 5.2 | 13.9 | 0.00 | 0.00 | 0.00 | 87 | 1006.9 |
| 20260506025021 | 78 | 123 | 6.1 | 13.9 | 0.00 | 0.00 | 0.00 | 87 | 1006.8 |
| 20260506024923 | 78 | 75 | 5.2 | 13.9 | 0.00 | 0.00 | 0.00 | 87 | 1006.7 |
| 20260506024822 | 78 | 195 | 5.2 | 13.9 | 0.00 | 0.00 | 0.00 | 87 | 1006.7 |
| 20260506024721 | 78 | 209 | 5.2 | 13.9 | 0.00 | 0.00 | 0.00 | 87 | 1006.6 |
| 20260506024622 | 78 | 195 | 5.2 | 13.9 | 0.00 | 0.00 | 0.00 | 87 | 1006.6 |
| 20260506024521 | 78 | 114 | 6.1 | 13.9 | 0.00 | 0.00 | 0.00 | 87 | 1006.6 |
| 20260506024423 | 78 | 166 | 5.2 | 13.9 | 0.00 | 0.00 | 0.00 | 87 | 1006.6 |
| 20260506024321 | 78 | 164 | 6.1 | 13.9 | 0.00 | 0.00 | 0.00 | 87 | 1006.5 |
| 20260506024222 | 78 | 154 | 6.1 | 13.9 | 0.00 | 0.00 | 0.00 | 87 | 1006.5 |
| 20260506024120 | 79 | 180 | 5.2 | 10.4 | 0.00 | 0.00 | 0.00 | 87 | 1006.5 |
| 20260506024021 | 79 | 89 | 4.3 | 10.4 | 0.00 | 0.00 | 0.00 | 87 | 1006.5 |
| 20260506023923 | 79 | 161 | 5.2 | 10.4 | 0.00 | 0.00 | 0.00 | 87 | 1006.5 |
| 20260506023821 | 79 | 196 | 5.2 | 10.4 | 0.00 | 0.00 | 0.00 | 87 | 1006.4 |
| 20260506023722 | 79 | 144 | 5.2 | 10.4 | 0.00 | 0.00 | 0.00 | 87 | 1006.4 |
| 20260506023622 | 79 | 154 | 5.2 | 11.3 | 0.00 | 0.00 | 0.00 | 87 | 1006.4 |
| 20260506023522 | 79 | 135 | 5.2 | 11.3 | 0.00 | 0.00 | 0.00 | 87 | 1006.5 |
| 20260506023421 | 79 | 197 | 5.2 | 11.3 | 0.00 | 0.00 | 0.00 | 86 | 1006.4 |
| 20260506023321 | 79 | 173 | 5.2 | 11.3 | 0.00 | 0.00 | 0.00 | 86 | 1006.4 |
| 20260506023220 | 79 | 193 | 5.2 | 11.3 | 0.00 | 0.00 | 0.00 | 86 | 1006.4 |
| 20260506023120 | 79 | 166 | 3.5 | 11.3 | 0.00 | 0.00 | 0.00 | 86 | 1006.4 |
| 20260506023021 | 79 | 221 | 3.5 | 11.3 | 0.00 | 0.00 | 0.00 | 86 | 1006.5 |
| 20260506022920 | 79 | 147 | 4.3 | 11.3 | 0.00 | 0.00 | 0.00 | 86 | 1006.4 |
| 20260506022820 | 79 | 147 | 6.1 | 11.3 | 0.00 | 0.00 | 0.00 | 86 | 1006.4 |
| 20260506022721 | 79 | 121 | 5.2 | 12.2 | 0.00 | 0.00 | 0.00 | 86 | 1006.4 |
| 20260506022621 | 79 | 123 | 3.5 | 12.2 | 0.00 | 0.00 | 0.00 | 86 | 1006.4 |
| 20260506022522 | 79 | 103 | 5.2 | 12.2 | 0.00 | 0.00 | 0.00 | 86 | 1006.4 |
| 20260506022421 | 79 | 202 | 5.2 | 12.2 | 0.00 | 0.00 | 0.00 | 86 | 1006.3 |
| 20260506022321 | 79 | 151 | 3.5 | 12.2 | 0.00 | 0.00 | 0.00 | 86 | 1006.3 |
| 20260506022220 | 79 | 166 | 3.5 | 13.0 | 0.00 | 0.00 | 0.00 | 86 | 1006.3 |
| 20260506022121 | 79 | 154 | 4.3 | 13.0 | 0.00 | 0.00 | 0.00 | 86 | 1006.3 |
| 20260506022021 | 79 | 109 | 5.2 | 13.0 | 0.00 | 0.00 | 0.00 | 86 | 1006.3 |
| 20260506021921 | 79 | 89 | 4.3 | 13.0 | 0.00 | 0.00 | 0.00 | 86 | 1006.3 |
| 20260506021822 | 79 | 199 | 2.6 | 13.0 | 0.00 | 0.00 | 0.00 | 86 | 1006.2 |
| 20260506021721 | 79 | 120 | 2.6 | 13.0 | 0.00 | 0.00 | 0.00 | 86 | 1006.2 |
| 20260506021620 | 79 | 120 | 3.5 | 13.0 | 0.00 | 0.00 | 0.00 | 86 | 1006.3 |
| 20260506021523 | 79 | 199 | 6.1 | 13.0 | 0.00 | 0.00 | 0.00 | 86 | 1006.2 |
| 20260506021420 | 79 | 190 | 7.0 | 13.0 | 0.00 | 0.00 | 0.00 | 86 | 1006.2 |
| 20260506021321 | 79 | 162 | 5.2 | 13.0 | 0.00 | 0.00 | 0.00 | 86 | 1006.2 |
| 20260506021221 | 79 | 272 | 3.5 | 12.2 | 0.00 | 0.00 | 0.00 | 86 | 1006.1 |
| 20260506021122 | 79 | 157 | 3.5 | 12.2 | 0.00 | 0.00 | 0.00 | 86 | 1006.2 |
| 20260506021020 | 79 | 118 | 3.5 | 12.2 | 0.00 | 0.00 | 0.00 | 86 | 1006.1 |
| 20260506020920 | 79 | 226 | 4.3 | 12.2 | 0.00 | 0.00 | 0.00 | 86 | 1006.2 |
| 20260506020821 | 79 | 182 | 5.2 | 12.2 | 0.00 | 0.00 | 0.00 | 86 | 1006.0 |
| 20260506020721 | 79 | 135 | 5.2 | 12.2 | 0.00 | 0.00 | 0.00 | 86 | 1006.0 |
| 20260506020620 | 79 | 158 | 7.0 | 12.2 | 0.00 | 0.00 | 0.00 | 86 | 1006.0 |
| 20260506020520 | 79 | 158 | 7.0 | 13.0 | 0.00 | 0.00 | 0.00 | 86 | 1006.0 |
| 20260506020421 | 79 | 195 | 5.2 | 13.0 | 0.00 | 0.00 | 0.00 | 86 | 1006.1 |
| 20260506020321 | 79 | 161 | 4.3 | 13.0 | 0.00 | 0.00 | 0.00 | 86 | 1006.0 |
| 20260506020220 | 79 | 131 | 3.5 | 13.0 | 0.00 | 0.00 | 0.00 | 86 | 1006.1 |
| 20260506020121 | 79 | 261 | 3.5 | 13.0 | 0.00 | 0.00 | 0.00 | 86 | 1006.1 |
| 20260506020020 | 79 | 235 | 4.3 | 13.0 | 0.00 | 0.00 | 0.00 | 86 | 1006.1 |
| 20260506015920 | 79 | 168 | 5.2 | 13.0 | 0.00 | 0.00 | 0.00 | 86 | 1006.0 |
| 20260506015821 | 79 | 200 | 7.0 | 13.0 | 0.00 | 0.00 | 0.00 | 86 | 1006.0 |
| 20260506015722 | 79 | 186 | 7.0 | 13.0 | 0.00 | 0.00 | 0.00 | 86 | 1006.1 |
| 20260506015620 | 79 | 164 | 6.1 | 13.0 | 0.00 | 0.00 | 0.00 | 85 | 1006.0 |
| 20260506015519 | 79 | 226 | 5.2 | 13.0 | 0.00 | 0.00 | 0.00 | 86 | 1006.0 |
| 20260506015422 | 79 | 113 | 4.3 | 13.0 | 0.00 | 0.00 | 0.00 | 86 | 1005.9 |
| 20260506015319 | 79 | 171 | 5.2 | 13.0 | 0.00 | 0.00 | 0.00 | 85 | 1005.9 |
| 20260506015220 | 79 | 148 | 4.3 | 13.0 | 0.00 | 0.00 | 0.00 | 85 | 1005.9 |
| 20260506015120 | 79 | 135 | 3.5 | 13.0 | 0.00 | 0.00 | 0.00 | 85 | 1005.9 |
| 20260506015020 | 79 | 155 | 4.3 | 13.0 | 0.00 | 0.00 | 0.00 | 85 | 1005.9 |
| 20260506014920 | 79 | 190 | 6.1 | 13.0 | 0.00 | 0.00 | 0.00 | 85 | 1005.9 |
| 20260506014819 | 79 | 161 | 5.2 | 13.0 | 0.00 | 0.00 | 0.00 | 85 | 1005.8 |
| 20260506014720 | 79 | 128 | 3.5 | 10.4 | 0.00 | 0.00 | 0.00 | 85 | 1005.8 |
| 20260506014619 | 79 | 157 | 3.5 | 10.4 | 0.00 | 0.00 | 0.00 | 85 | 1005.9 |
| 20260506014520 | 79 | 147 | 3.5 | 10.4 | 0.00 | 0.00 | 0.00 | 85 | 1005.8 |
| 20260506014420 | 79 | 147 | 3.5 | 10.4 | 0.00 | 0.00 | 0.00 | 85 | 1005.8 |
| 20260506014321 | 79 | 171 | 2.6 | 10.4 | 0.00 | 0.00 | 0.00 | 85 | 1005.8 |
| 20260506014219 | 79 | 154 | 3.5 | 10.4 | 0.00 | 0.00 | 0.00 | 85 | 1005.8 |
| 20260506014120 | 79 | 147 | 4.3 | 10.4 | 0.00 | 0.00 | 0.00 | 85 | 1005.8 |
| 20260506014021 | 79 | 192 | 3.5 | 10.4 | 0.00 | 0.00 | 0.00 | 85 | 1005.8 |
| 20260506013920 | 79 | 82 | 2.6 | 9.6 | 0.00 | 0.00 | 0.00 | 85 | 1005.8 |
| 20260506013820 | 79 | 192 | 2.6 | 9.6 | 0.00 | 0.00 | 0.00 | 85 | 1005.7 |
| 20260506013719 | 79 | 155 | 3.5 | 9.6 | 0.00 | 0.00 | 0.00 | 85 | 1005.7 |
| 20260506013619 | 79 | 285 | 2.6 | 9.6 | 0.00 | 0.00 | 0.00 | 85 | 1005.7 |
| 20260506013519 | 79 | 166 | 2.6 | 9.6 | 0.00 | 0.00 | 0.00 | 85 | 1005.7 |
| 20260506013419 | 79 | 141 | 4.3 | 9.6 | 0.00 | 0.00 | 0.00 | 85 | 1005.7 |
| 20260506013320 | 79 | 185 | 5.2 | 9.6 | 0.00 | 0.00 | 0.00 | 85 | 1005.7 |
| 20260506013219 | 79 | 152 | 4.3 | 9.6 | 0.00 | 0.00 | 0.00 | 85 | 1005.7 |
| 20260506013120 | 79 | 154 | 4.3 | 9.6 | 0.00 | 0.00 | 0.00 | 85 | 1005.6 |
| 20260506013020 | 79 | 202 | 4.3 | 9.6 | 0.00 | 0.00 | 0.00 | 85 | 1005.5 |
| 20260506012920 | 79 | 207 | 5.2 | 9.6 | 0.00 | 0.00 | 0.00 | 84 | 1005.5 |
| 20260506012819 | 79 | 159 | 3.5 | 9.6 | 0.00 | 0.00 | 0.00 | 84 | 1005.6 |
| 20260506012720 | 79 | 196 | 2.6 | 9.6 | 0.00 | 0.00 | 0.00 | 84 | 1005.5 |
| 20260506012620 | 79 | 128 | 3.5 | 9.6 | 0.00 | 0.00 | 0.00 | 84 | 1005.5 |
| 20260506012519 | 79 | 131 | 4.3 | 9.6 | 0.00 | 0.00 | 0.00 | 84 | 1005.5 |
| 20260506012420 | 79 | 113 | 5.2 | 9.6 | 0.00 | 0.00 | 0.00 | 84 | 1005.5 |
| 20260506012319 | 79 | 38 | 5.2 | 10.4 | 0.00 | 0.00 | 0.00 | 84 | 1005.5 |
| 20260506012220 | 80 | 176 | 3.5 | 10.4 | 0.00 | 0.00 | 0.00 | 84 | 1005.6 |
| 20260506012119 | 79 | 169 | 3.5 | 10.4 | 0.00 | 0.00 | 0.00 | 84 | 1005.5 |
| 20260506012019 | 79 | 140 | 3.5 | 10.4 | 0.00 | 0.00 | 0.00 | 84 | 1005.5 |
| 20260506011919 | 79 | 138 | 5.2 | 10.4 | 0.00 | 0.00 | 0.00 | 84 | 1005.5 |
| 20260506011820 | 80 | 178 | 5.2 | 10.4 | 0.00 | 0.00 | 0.00 | 84 | 1005.5 |
| 20260506011718 | 80 | 148 | 4.3 | 10.4 | 0.00 | 0.00 | 0.00 | 84 | 1005.4 |
| 20260506011620 | 80 | 90 | 4.3 | 10.4 | 0.00 | 0.00 | 0.00 | 84 | 1005.4 |
| 20260506011519 | 80 | 152 | 5.2 | 10.4 | 0.00 | 0.00 | 0.00 | 84 | 1005.3 |
| 20260506011419 | 80 | 169 | 5.2 | 10.4 | 0.00 | 0.00 | 0.00 | 84 | 1005.3 |
| 20260506011320 | 80 | 185 | 5.2 | 9.6 | 0.00 | 0.00 | 0.00 | 84 | 1005.3 |
| 20260506011221 | 80 | 159 | 5.2 | 9.6 | 0.00 | 0.00 | 0.00 | 84 | 1005.3 |
| 20260506011119 | 80 | 166 | 5.2 | 9.6 | 0.00 | 0.00 | 0.00 | 83 | 1005.4 |
| 20260506011020 | 80 | 109 | 5.2 | 10.4 | 0.00 | 0.00 | 0.00 | 83 | 1005.3 |
| 20260506010919 | 80 | 180 | 2.6 | 10.4 | 0.00 | 0.00 | 0.00 | 83 | 1005.3 |
| 20260506010818 | 80 | 171 | 3.5 | 10.4 | 0.00 | 0.00 | 0.00 | 83 | 1005.3 |
| 20260506010719 | 80 | 173 | 4.3 | 10.4 | 0.00 | 0.00 | 0.00 | 83 | 1005.3 |
| 20260506010619 | 80 | 206 | 3.5 | 10.4 | 0.00 | 0.00 | 0.00 | 83 | 1005.3 |
| 20260506010520 | 80 | 189 | 3.5 | 10.4 | 0.00 | 0.00 | 0.00 | 83 | 1005.3 |
| 20260506010419 | 80 | 138 | 3.5 | 10.4 | 0.00 | 0.00 | 0.00 | 83 | 1005.3 |
| 20260506010319 | 80 | 120 | 4.3 | 10.4 | 0.00 | 0.00 | 0.00 | 83 | 1005.3 |
| 20260506010220 | 80 | 144 | 3.5 | 10.4 | 0.00 | 0.00 | 0.00 | 83 | 1005.2 |
| 20260506010119 | 80 | 192 | 3.5 | 10.4 | 0.00 | 0.00 | 0.00 | 83 | 1005.3 |
| 20260506010021 | 80 | 159 | 4.3 | 11.3 | 0.00 | 0.00 | 0.00 | 83 | 1005.3 |
| 20260506005919 | 80 | 155 | 4.3 | 11.3 | 0.00 | 0.00 | 0.00 | 83 | 1005.2 |
| 20260506005820 | 80 | 212 | 3.5 | 11.3 | 0.00 | 0.00 | 0.00 | 83 | 1005.2 |
| 20260506005718 | 80 | 0 | 1.7 | 11.3 | 0.00 | 0.00 | 0.00 | 83 | 1005.2 |
| 20260506005619 | 80 | 137 | 2.6 | 11.3 | 0.00 | 0.00 | 0.00 | 83 | 1005.2 |
| 20260506005519 | 80 | 107 | 4.3 | 11.3 | 0.00 | 0.00 | 0.00 | 83 | 1005.2 |
| 20260506005418 | 80 | 106 | 6.1 | 11.3 | 0.00 | 0.00 | 0.00 | 83 | 1005.2 |
| 20260506005318 | 80 | 113 | 6.1 | 11.3 | 0.00 | 0.00 | 0.00 | 82 | 1005.2 |
| 20260506005219 | 80 | 96 | 6.1 | 11.3 | 0.00 | 0.00 | 0.00 | 82 | 1005.1 |
| 20260506005119 | 80 | 87 | 6.1 | 11.3 | 0.00 | 0.00 | 0.00 | 82 | 1005.2 |
| 20260506005018 | 80 | 106 | 3.5 | 10.4 | 0.00 | 0.00 | 0.00 | 82 | 1005.2 |
| 20260506004918 | 80 | 130 | 3.5 | 10.4 | 0.00 | 0.00 | 0.00 | 82 | 1005.2 |
| 20260506004820 | 80 | 106 | 4.3 | 10.4 | 0.00 | 0.00 | 0.00 | 82 | 1005.1 |
| 20260506004719 | 80 | 142 | 4.3 | 10.4 | 0.00 | 0.00 | 0.00 | 82 | 1005.1 |
| 20260506004618 | 80 | 86 | 4.3 | 10.4 | 0.00 | 0.00 | 0.00 | 82 | 1005.1 |
| 20260506004519 | 80 | 35 | 3.5 | 10.4 | 0.00 | 0.00 | 0.00 | 82 | 1005.2 |
| 20260506004419 | 80 | 71 | 4.3 | 13.0 | 0.00 | 0.00 | 0.00 | 82 | 1005.2 |
| 20260506004318 | 80 | 111 | 3.5 | 13.0 | 0.00 | 0.00 | 0.00 | 82 | 1005.2 |
| 20260506004218 | 80 | 169 | 3.5 | 13.0 | 0.00 | 0.00 | 0.00 | 82 | 1005.2 |
| 20260506004119 | 80 | 94 | 5.2 | 13.0 | 0.00 | 0.00 | 0.00 | 82 | 1005.2 |
| 20260506004018 | 80 | 125 | 4.3 | 13.0 | 0.00 | 0.00 | 0.00 | 82 | 1005.2 |
| 20260506003918 | 80 | 134 | 5.2 | 13.0 | 0.00 | 0.00 | 0.00 | 82 | 1005.2 |
| 20260506003819 | 80 | 130 | 5.2 | 13.0 | 0.00 | 0.00 | 0.00 | 82 | 1005.2 |
| 20260506003719 | 80 | 142 | 5.2 | 13.0 | 0.00 | 0.00 | 0.00 | 82 | 1005.2 |
| 20260506003618 | 80 | 121 | 6.1 | 13.0 | 0.00 | 0.00 | 0.00 | 82 | 1005.2 |
| 20260506003518 | 80 | 102 | 6.1 | 13.0 | 0.00 | 0.00 | 0.00 | 82 | 1005.1 |
| 20260506003419 | 80 | 96 | 4.3 | 9.6 | 0.00 | 0.00 | 0.00 | 82 | 1005.2 |
| 20260506003318 | 80 | 131 | 3.5 | 9.6 | 0.00 | 0.00 | 0.00 | 82 | 1005.2 |
| 20260506003217 | 80 | 90 | 3.5 | 9.6 | 0.00 | 0.00 | 0.00 | 82 | 1005.1 |
| 20260506003118 | 80 | 90 | 4.3 | 9.6 | 0.00 | 0.00 | 0.00 | 82 | 1005.2 |
| 20260506003017 | 80 | 120 | 4.3 | 9.6 | 0.00 | 0.00 | 0.00 | 82 | 1005.1 |
| 20260506002917 | 80 | 90 | 4.3 | 10.4 | 0.00 | 0.00 | 0.00 | 81 | 1005.0 |
| 20260506002818 | 81 | 100 | 6.1 | 10.4 | 0.00 | 0.00 | 0.00 | 81 | 1005.0 |
| 20260506002720 | 81 | 103 | 5.2 | 10.4 | 0.00 | 0.00 | 0.00 | 81 | 1005.0 |
| 20260506002617 | 81 | 82 | 3.5 | 10.4 | 0.00 | 0.00 | 0.00 | 81 | 1005.0 |
| 20260506002517 | 81 | 100 | 2.6 | 10.4 | 0.00 | 0.00 | 0.00 | 81 | 1005.0 |
| 20260506002419 | 81 | 111 | 4.3 | 10.4 | 0.00 | 0.00 | 0.00 | 81 | 1004.9 |
| 20260506002318 | 81 | 78 | 4.3 | 10.4 | 0.00 | 0.00 | 0.00 | 81 | 1004.9 |
| 20260506002218 | 81 | 93 | 4.3 | 10.4 | 0.00 | 0.00 | 0.00 | 81 | 1004.9 |
| 20260506002118 | 81 | 79 | 4.3 | 10.4 | 0.00 | 0.00 | 0.00 | 81 | 1004.9 |
| 20260506002019 | 81 | 158 | 4.3 | 10.4 | 0.00 | 0.00 | 0.00 | 81 | 1004.9 |
| 20260506001918 | 81 | 117 | 5.2 | 10.4 | 0.00 | 0.00 | 0.00 | 81 | 1004.9 |
| 20260506001818 | 81 | 69 | 5.2 | 10.4 | 0.00 | 0.00 | 0.00 | 81 | 1004.9 |
| 20260506001719 | 81 | 116 | 3.5 | 17.4 | 0.00 | 0.00 | 0.00 | 81 | 1004.8 |
| 20260506001618 | 81 | 127 | 2.6 | 17.4 | 0.00 | 0.00 | 0.00 | 81 | 1004.8 |
| 20260506001518 | 81 | 0 | 3.5 | 17.4 | 0.00 | 0.00 | 0.00 | 81 | 1004.9 |
| 20260506001417 | 81 | 106 | 4.3 | 17.4 | 0.00 | 0.00 | 0.00 | 80 | 1004.9 |
| 20260506001319 | 81 | 104 | 6.1 | 17.4 | 0.00 | 0.00 | 0.00 | 80 | 1004.9 |
| 20260506001217 | 81 | 99 | 5.2 | 17.4 | 0.00 | 0.00 | 0.00 | 80 | 1004.9 |
| 20260506001117 | 81 | 102 | 3.5 | 17.4 | 0.00 | 0.00 | 0.00 | 80 | 1004.9 |
| 20260506001018 | 81 | 97 | 4.3 | 17.4 | 0.00 | 0.00 | 0.00 | 80 | 1004.9 |
| 20260506000917 | 81 | 103 | 7.0 | 17.4 | 0.00 | 0.00 | 0.00 | 80 | 1004.9 |
| 20260506000819 | 81 | 123 | 7.8 | 17.4 | 0.00 | 0.00 | 0.00 | 80 | 1004.9 |
| 20260506000714 | 81 | 97 | 5.2 | 13.9 | 0.00 | 0.00 | 0.00 | 80 | 1005.0 |
| 20260506000609 | 81 | 127 | 3.5 | 13.0 | 0.00 | 0.00 | 0.00 | 80 | 1005.0 |
| 20260506000509 | 81 | 87 | 5.2 | 13.0 | 0.00 | 0.00 | 0.00 | 80 | 1005.0 |
| 20260506000409 | 81 | 102 | 7.0 | 13.0 | 0.00 | 0.00 | 0.00 | 80 | 1004.9 |
| 20260506000309 | 81 | 65 | 6.1 | 13.0 | 0.00 | 0.00 | 0.00 | 80 | 1005.0 |
| 20260506000206 | 81 | 99 | 6.1 | 11.3 | 0.00 | 0.00 | 0.00 | 80 | 1005.0 |
| 20260506000104 | 81 | 141 | 5.2 | 13.0 | 0.00 | 0.00 | 0.00 | 80 | 1005.0 |
| 20260506000003 | 81 | 55 | 5.2 | 13.0 | 0.00 | 0.00 | 0.00 | 80 | 1004.9 |
| 20260505235902 | 81 | 128 | 6.1 | 13.0 | 0.00 | 0.00 | 0.00 | 80 | 1004.9 |
| 20260505235802 | 81 | 102 | 4.3 | 13.0 | 0.00 | 0.00 | 0.00 | 80 | 1005.0 |
| 20260505235702 | 81 | 124 | 4.3 | 13.0 | 0.00 | 0.00 | 0.00 | 80 | 1004.9 |
| 20260505235603 | 81 | 118 | 5.2 | 13.0 | 0.00 | 0.00 | 0.00 | 80 | 1004.9 |
| 20260505235503 | 81 | 93 | 5.2 | 13.9 | 0.00 | 0.00 | 0.00 | 80 | 1004.8 |
| 20260505235403 | 81 | 109 | 5.2 | 13.9 | 0.00 | 0.00 | 0.00 | 80 | 1004.8 |
| 20260505235305 | 81 | 94 | 5.2 | 13.9 | 0.00 | 0.00 | 0.00 | 80 | 1004.9 |
| 20260505235204 | 81 | 87 | 5.2 | 13.9 | 0.00 | 0.00 | 0.00 | 80 | 1004.8 |
| 20260505235102 | 81 | 145 | 5.2 | 13.9 | 0.00 | 0.00 | 0.00 | 79 | 1004.8 |
| 20260505235003 | 81 | 71 | 5.2 | 13.9 | 0.00 | 0.00 | 0.00 | 79 | 1004.7 |
| 20260505234902 | 81 | 111 | 5.2 | 13.9 | 0.00 | 0.00 | 0.00 | 79 | 1004.8 |
| 20260505234802 | 81 | 0 | 6.1 | 13.9 | 0.00 | 0.00 | 0.00 | 79 | 1004.8 |
| 20260505234702 | 81 | 80 | 7.0 | 13.9 | 0.00 | 0.00 | 0.00 | 79 | 1004.8 |
| 20260505234604 | 82 | 116 | 7.0 | 13.9 | 0.00 | 0.00 | 0.00 | 79 | 1004.8 |
| 20260505234504 | 82 | 118 | 5.2 | 12.2 | 0.00 | 0.00 | 0.00 | 79 | 1004.8 |
| 20260505234402 | 82 | 102 | 5.2 | 11.3 | 0.00 | 0.00 | 0.00 | 79 | 1004.8 |
| 20260505234303 | 82 | 76 | 6.1 | 11.3 | 0.00 | 0.00 | 0.00 | 79 | 1004.8 |
| 20260505234203 | 82 | 78 | 7.0 | 11.3 | 0.00 | 0.00 | 0.00 | 79 | 1004.8 |
| 20260505234104 | 82 | 110 | 5.2 | 11.3 | 0.00 | 0.00 | 0.00 | 79 | 1004.9 |
| 20260505234002 | 82 | 120 | 3.5 | 11.3 | 0.00 | 0.00 | 0.00 | 80 | 1004.9 |
| 20260505233903 | 82 | 86 | 3.5 | 11.3 | 0.00 | 0.00 | 0.00 | 80 | 1004.9 |
| 20260505233802 | 82 | 0 | 5.2 | 12.2 | 0.00 | 0.00 | 0.00 | 80 | 1004.9 |
| 20260505233702 | 82 | 113 | 6.1 | 12.2 | 0.00 | 0.00 | 0.00 | 79 | 1004.9 |
| 20260505233604 | 82 | 111 | 6.1 | 12.2 | 0.00 | 0.00 | 0.00 | 79 | 1005.0 |
| 20260505233504 | 82 | 90 | 7.8 | 12.2 | 0.00 | 0.00 | 0.00 | 79 | 1004.9 |
| 20260505233402 | 82 | 137 | 7.0 | 12.2 | 0.00 | 0.00 | 0.00 | 79 | 1004.9 |
| 20260505233302 | 82 | 96 | 5.2 | 12.2 | 0.00 | 0.00 | 0.00 | 80 | 1004.9 |
| 20260505233204 | 82 | 114 | 5.2 | 12.2 | 0.00 | 0.00 | 0.00 | 79 | 1004.9 |
| 20260505233102 | 82 | 93 | 4.3 | 12.2 | 0.00 | 0.00 | 0.00 | 80 | 1004.9 |
| 20260505233002 | 82 | 111 | 3.5 | 12.2 | 0.00 | 0.00 | 0.00 | 80 | 1004.9 |
| 20260505232903 | 82 | 80 | 4.3 | 13.0 | 0.00 | 0.00 | 0.00 | 80 | 1004.9 |
| 20260505232802 | 82 | 68 | 5.2 | 13.0 | 0.00 | 0.00 | 0.00 | 80 | 1004.9 |
| 20260505232702 | 82 | 80 | 4.3 | 16.5 | 0.00 | 0.00 | 0.00 | 80 | 1005.0 |
| 20260505232602 | 82 | 123 | 3.5 | 16.5 | 0.00 | 0.00 | 0.00 | 80 | 1004.9 |
| 20260505232504 | 82 | 93 | 4.3 | 16.5 | 0.00 | 0.00 | 0.00 | 80 | 1004.8 |
| 20260505232402 | 82 | 71 | 4.3 | 16.5 | 0.00 | 0.00 | 0.00 | 79 | 1004.9 |
| 20260505232305 | 82 | 109 | 3.5 | 16.5 | 0.00 | 0.00 | 0.00 | 79 | 1004.9 |
| 20260505232203 | 82 | 93 | 4.3 | 16.5 | 0.00 | 0.00 | 0.00 | 79 | 1004.9 |
| 20260505232102 | 82 | 117 | 6.1 | 16.5 | 0.00 | 0.00 | 0.00 | 79 | 1004.9 |
| 20260505232002 | 82 | 121 | 7.0 | 16.5 | 0.00 | 0.00 | 0.00 | 79 | 1004.9 |
| 20260505231903 | 82 | 118 | 8.7 | 16.5 | 0.00 | 0.00 | 0.00 | 79 | 1004.9 |
| 20260505231802 | 82 | 120 | 7.8 | 16.5 | 0.00 | 0.00 | 0.00 | 79 | 1005.0 |
| 20260505231702 | 82 | 128 | 5.2 | 12.2 | 0.00 | 0.00 | 0.00 | 79 | 1005.0 |
| 20260505231603 | 82 | 107 | 5.2 | 12.2 | 0.00 | 0.00 | 0.00 | 79 | 1005.0 |
| 20260505231504 | 82 | 63 | 5.2 | 12.2 | 0.00 | 0.00 | 0.00 | 79 | 1005.0 |
| 20260505231402 | 82 | 87 | 5.2 | 12.2 | 0.00 | 0.00 | 0.00 | 79 | 1005.0 |
| 20260505231304 | 82 | 107 | 6.1 | 12.2 | 0.00 | 0.00 | 0.00 | 79 | 1005.0 |
| 20260505231203 | 82 | 134 | 5.2 | 11.3 | 0.00 | 0.00 | 0.00 | 79 | 1005.0 |
| 20260505231102 | 82 | 110 | 4.3 | 11.3 | 0.00 | 0.00 | 0.00 | 79 | 1004.9 |
| 20260505231002 | 82 | 85 | 3.5 | 11.3 | 0.00 | 0.00 | 0.00 | 79 | 1005.0 |
| 20260505230902 | 82 | 99 | 3.5 | 11.3 | 0.00 | 0.00 | 0.00 | 79 | 1005.0 |
| 20260505230803 | 82 | 79 | 5.2 | 11.3 | 0.00 | 0.00 | 0.00 | 79 | 1005.0 |
| 20260505230702 | 82 | 85 | 5.2 | 11.3 | 0.00 | 0.00 | 0.00 | 79 | 1005.0 |
| 20260505230602 | 82 | 138 | 4.3 | 11.3 | 0.00 | 0.00 | 0.00 | 79 | 1005.0 |
| 20260505230504 | 82 | 73 | 4.3 | 12.2 | 0.00 | 0.00 | 0.00 | 79 | 1004.9 |
| 20260505230403 | 82 | 48 | 5.2 | 12.2 | 0.00 | 0.00 | 0.00 | 79 | 1004.9 |
| 20260505230303 | 82 | 104 | 5.2 | 12.2 | 0.00 | 0.00 | 0.00 | 79 | 1004.9 |
| 20260505230203 | 82 | 124 | 5.2 | 12.2 | 0.00 | 0.00 | 0.00 | 79 | 1004.9 |
| 20260505230003 | 82 | 0 | 5.2 | 13.0 | 0.00 | 0.00 | 0.00 | 79 | 1005.0 |
| 20260505225902 | 82 | 94 | 5.2 | 13.0 | 0.00 | 0.00 | 0.00 | 79 | 1004.9 |
| 20260505225803 | 82 | 87 | 5.2 | 13.0 | 0.00 | 0.00 | 0.00 | 79 | 1004.9 |
| 20260505225703 | 82 | 80 | 7.0 | 13.0 | 0.00 | 0.00 | 0.00 | 79 | 1004.9 |
| 20260505225602 | 82 | 94 | 7.8 | 13.0 | 0.00 | 0.00 | 0.00 | 79 | 1004.9 |
| 20260505225504 | 82 | 130 | 7.0 | 13.0 | 0.00 | 0.00 | 0.00 | 79 | 1004.9 |
| 20260505225403 | 82 | 123 | 6.1 | 13.0 | 0.00 | 0.00 | 0.00 | 79 | 1004.8 |
| 20260505225305 | 82 | 120 | 7.0 | 13.0 | 0.00 | 0.00 | 0.00 | 79 | 1004.8 |
| 20260505225202 | 82 | 73 | 7.8 | 13.0 | 0.00 | 0.00 | 0.00 | 79 | 1004.8 |
| 20260505225103 | 82 | 125 | 6.1 | 13.0 | 0.00 | 0.00 | 0.00 | 79 | 1004.8 |
| 20260505225002 | 82 | 121 | 6.1 | 13.0 | 0.00 | 0.00 | 0.00 | 79 | 1004.7 |
| 20260505224902 | 83 | 73 | 7.8 | 13.0 | 0.00 | 0.00 | 0.00 | 78 | 1004.7 |
| 20260505224804 | 83 | 210 | 7.8 | 13.0 | 0.00 | 0.00 | 0.00 | 78 | 1004.7 |
| 20260505224702 | 83 | 144 | 7.0 | 12.2 | 0.00 | 0.00 | 0.00 | 78 | 1004.7 |
| 20260505224602 | 83 | 157 | 6.1 | 11.3 | 0.00 | 0.00 | 0.00 | 78 | 1004.7 |
| 20260505224504 | 83 | 147 | 5.2 | 11.3 | 0.00 | 0.00 | 0.00 | 78 | 1004.7 |
| 20260505224402 | 83 | 164 | 6.1 | 11.3 | 0.00 | 0.00 | 0.00 | 78 | 1004.8 |
| 20260505224302 | 83 | 121 | 5.2 | 11.3 | 0.00 | 0.00 | 0.00 | 77 | 1004.9 |
| 20260505224159 | 83 | 154 | 3.5 | 10.4 | 0.00 | 0.00 | 0.00 | 77 | 1004.8 |
| 20260505224058 | 83 | 138 | 3.5 | 10.4 | 0.00 | 0.00 | 0.00 | 77 | 1004.9 |
| 20260505223956 | 83 | 157 | 4.3 | 10.4 | 0.00 | 0.00 | 0.00 | 77 | 1004.9 |
| 20260505223854 | 83 | 142 | 5.2 | 10.4 | 0.00 | 0.00 | 0.00 | 77 | 1004.9 |
| 20260505223753 | 83 | 109 | 4.3 | 10.4 | 0.00 | 0.00 | 0.00 | 77 | 1004.9 |
| 20260505223652 | 83 | 133 | 2.6 | 11.3 | 0.00 | 0.00 | 0.00 | 77 | 1004.9 |
| 20260505223550 | 83 | 180 | 4.3 | 11.3 | 0.00 | 0.00 | 0.00 | 77 | 1004.8 |
| 20260505223448 | 83 | 214 | 4.3 | 11.3 | 0.00 | 0.00 | 0.00 | 77 | 1004.9 |
| 20260505223348 | 83 | 164 | 5.2 | 11.3 | 0.00 | 0.00 | 0.00 | 77 | 1004.9 |
| 20260505223246 | 83 | 141 | 7.0 | 11.3 | 0.00 | 0.00 | 0.00 | 77 | 1004.8 |
| 20260505223145 | 83 | 196 | 7.0 | 11.3 | 0.00 | 0.00 | 0.00 | 77 | 1004.9 |
| 20260505223044 | 83 | 188 | 5.2 | 13.0 | 0.00 | 0.00 | 0.00 | 77 | 1005.0 |
| 20260505222942 | 83 | 193 | 5.2 | 13.0 | 0.00 | 0.00 | 0.00 | 78 | 1004.9 |
| 20260505222839 | 83 | 168 | 6.1 | 13.0 | 0.00 | 0.00 | 0.00 | 77 | 1004.9 |
| 20260505222739 | 83 | 164 | 5.2 | 13.0 | 0.00 | 0.00 | 0.00 | 78 | 1004.9 |
| 20260505222638 | 83 | 192 | 6.1 | 13.0 | 0.00 | 0.00 | 0.00 | 77 | 1004.9 |
| 20260505222536 | 83 | 158 | 6.1 | 13.0 | 0.00 | 0.00 | 0.00 | 77 | 1004.9 |
| 20260505222430 | 83 | 190 | 5.2 | 13.0 | 0.00 | 0.00 | 0.00 | 77 | 1004.9 |
| 20260505222330 | 83 | 25 | 5.2 | 13.0 | 0.00 | 0.00 | 0.00 | 77 | 1005.0 |
| 20260505222231 | 83 | 140 | 6.1 | 13.9 | 0.00 | 0.00 | 0.00 | 77 | 1005.0 |
| 20260505222131 | 83 | 214 | 6.1 | 13.9 | 0.00 | 0.00 | 0.00 | 77 | 1005.0 |
| 20260505222031 | 83 | 244 | 4.3 | 13.9 | 0.00 | 0.00 | 0.00 | 77 | 1005.0 |
| 20260505221932 | 83 | 231 | 4.3 | 13.9 | 0.00 | 0.00 | 0.00 | 77 | 1004.9 |
| 20260505221831 | 83 | 207 | 5.2 | 13.9 | 0.00 | 0.00 | 0.00 | 77 | 1005.0 |
| 20260505221731 | 83 | 185 | 6.1 | 13.9 | 0.00 | 0.00 | 0.00 | 76 | 1005.0 |
| 20260505221632 | 83 | 106 | 6.1 | 13.9 | 0.00 | 0.00 | 0.00 | 76 | 1004.9 |
| 20260505221531 | 83 | 189 | 5.2 | 13.9 | 0.00 | 0.00 | 0.00 | 76 | 1004.9 |
| 20260505221431 | 83 | 183 | 6.1 | 13.9 | 0.00 | 0.00 | 0.00 | 76 | 1005.0 |
| 20260505221332 | 83 | 165 | 7.8 | 13.9 | 0.00 | 0.00 | 0.00 | 76 | 1005.0 |
| 20260505221232 | 83 | 196 | 7.0 | 13.9 | 0.00 | 0.00 | 0.00 | 76 | 1005.0 |
| 20260505221130 | 83 | 161 | 7.8 | 13.9 | 0.00 | 0.00 | 0.00 | 76 | 1005.0 |
| 20260505221028 | 83 | 172 | 7.8 | 13.9 | 0.00 | 0.00 | 0.00 | 77 | 1005.0 |
| 20260505220927 | 83 | 182 | 5.2 | 13.0 | 0.00 | 0.00 | 0.00 | 77 | 1005.1 |
| 20260505220825 | 83 | 200 | 5.2 | 14.8 | 0.00 | 0.00 | 0.00 | 77 | 1005.0 |
| 20260505220723 | 83 | 155 | 5.2 | 14.8 | 0.00 | 0.00 | 0.00 | 77 | 1005.0 |
| 20260505220623 | 83 | 224 | 6.1 | 14.8 | 0.00 | 0.00 | 0.00 | 77 | 1005.0 |
| 20260505220520 | 83 | 109 | 7.0 | 14.8 | 0.00 | 0.00 | 0.00 | 77 | 1004.9 |
| 20260505220419 | 84 | 189 | 7.0 | 14.8 | 0.00 | 0.00 | 0.00 | 76 | 1005.0 |
| 20260505220317 | 84 | 165 | 7.0 | 14.8 | 0.00 | 0.00 | 0.00 | 76 | 1005.0 |
| 20260505220217 | 84 | 180 | 6.1 | 14.8 | 0.00 | 0.00 | 0.00 | 76 | 1005.0 |
| 20260505220116 | 84 | 157 | 7.8 | 14.8 | 0.00 | 0.00 | 0.00 | 76 | 1005.1 |
| 20260505220015 | 84 | 207 | 7.8 | 14.8 | 0.00 | 0.00 | 0.00 | 76 | 1005.1 |
| 20260505215915 | 84 | 173 | 5.2 | 14.8 | 0.00 | 0.00 | 0.00 | 77 | 1005.2 |
| 20260505215815 | 84 | 175 | 6.1 | 11.3 | 0.00 | 0.00 | 0.00 | 76 | 1005.2 |
| 20260505215715 | 84 | 190 | 6.1 | 11.3 | 0.00 | 0.00 | 0.00 | 76 | 1005.0 |
| 20260505215617 | 84 | 185 | 5.2 | 11.3 | 0.00 | 0.00 | 0.00 | 77 | 1005.1 |
| 20260505215514 | 84 | 210 | 5.2 | 11.3 | 0.00 | 0.00 | 0.00 | 77 | 1005.1 |
| 20260505215416 | 84 | 192 | 5.2 | 11.3 | 0.00 | 0.00 | 0.00 | 77 | 1005.1 |
| 20260505215315 | 84 | 141 | 6.1 | 13.0 | 0.00 | 0.00 | 0.00 | 77 | 1005.2 |
| 20260505215214 | 84 | 226 | 6.1 | 13.0 | 0.00 | 0.00 | 0.00 | 76 | 1005.1 |
| 20260505215116 | 84 | 274 | 6.1 | 15.6 | 0.00 | 0.00 | 0.00 | 77 | 1005.1 |
| 20260505215014 | 84 | 212 | 7.0 | 15.6 | 0.00 | 0.00 | 0.00 | 77 | 1005.1 |
| 20260505214915 | 84 | 202 | 5.2 | 15.6 | 0.00 | 0.00 | 0.00 | 77 | 1005.2 |
| 20260505214815 | 84 | 202 | 3.5 | 15.6 | 0.00 | 0.00 | 0.00 | 77 | 1005.2 |
| 20260505214715 | 84 | 214 | 6.1 | 15.6 | 0.00 | 0.00 | 0.00 | 77 | 1005.2 |
| 20260505214614 | 84 | 207 | 7.8 | 16.5 | 0.00 | 0.00 | 0.00 | 77 | 1005.2 |
| 20260505214514 | 84 | 203 | 7.8 | 16.5 | 0.00 | 0.00 | 0.00 | 77 | 1005.2 |
| 20260505214416 | 84 | 189 | 7.8 | 16.5 | 0.00 | 0.00 | 0.00 | 76 | 1005.2 |
| 20260505214313 | 84 | 197 | 7.8 | 16.5 | 0.00 | 0.00 | 0.00 | 77 | 1005.3 |
| 20260505214212 | 84 | 204 | 6.1 | 16.5 | 0.00 | 0.00 | 0.00 | 76 | 1005.2 |
| 20260505214112 | 84 | 204 | 6.1 | 16.5 | 0.00 | 0.00 | 0.00 | 77 | 1005.3 |
| 20260505214005 | 84 | 180 | 6.1 | 16.5 | 0.00 | 0.00 | 0.00 | 76 | 1005.3 |
| 20260505213903 | 84 | 235 | 7.8 | 16.5 | 0.00 | 0.00 | 0.00 | 76 | 1005.3 |
| 20260505213802 | 84 | 240 | 9.6 | 16.5 | 0.00 | 0.00 | 0.00 | 76 | 1005.3 |
| 20260505213701 | 85 | 202 | 8.7 | 14.8 | 0.00 | 0.00 | 0.00 | 76 | 1005.3 |
| 20260505213603 | 85 | 161 | 5.2 | 13.0 | 0.00 | 0.00 | 0.00 | 75 | 1005.4 |
| 20260505213502 | 85 | 206 | 4.3 | 12.2 | 0.00 | 0.00 | 0.00 | 75 | 1005.3 |
| 20260505213402 | 85 | 173 | 5.2 | 12.2 | 0.00 | 0.00 | 0.00 | 75 | 1005.3 |
| 20260505213305 | 85 | 237 | 5.2 | 12.2 | 0.00 | 0.00 | 0.00 | 75 | 1005.3 |
| 20260505213203 | 85 | 245 | 5.2 | 14.8 | 0.00 | 0.00 | 0.00 | 75 | 1005.3 |
| 20260505213102 | 85 | 224 | 4.3 | 14.8 | 0.00 | 0.00 | 0.00 | 75 | 1005.3 |
| 20260505213002 | 85 | 179 | 3.5 | 14.8 | 0.00 | 0.00 | 0.00 | 75 | 1005.2 |
| 20260505212904 | 85 | 175 | 4.3 | 14.8 | 0.00 | 0.00 | 0.00 | 76 | 1005.3 |
| 20260505212802 | 85 | 196 | 5.2 | 14.8 | 0.00 | 0.00 | 0.00 | 75 | 1005.3 |
| 20260505212703 | 85 | 203 | 6.1 | 14.8 | 0.00 | 0.00 | 0.00 | 76 | 1005.3 |
| 20260505212603 | 84 | 203 | 5.2 | 14.8 | 0.00 | 0.00 | 0.00 | 75 | 1005.3 |
| 20260505212502 | 84 | 221 | 6.1 | 14.8 | 0.00 | 0.00 | 0.00 | 75 | 1005.4 |
| 20260505212402 | 84 | 178 | 8.7 | 14.8 | 0.00 | 0.00 | 0.00 | 75 | 1005.4 |
| 20260505212306 | 84 | 200 | 7.8 | 14.8 | 0.00 | 0.00 | 0.00 | 76 | 1005.4 |
| 20260505212202 | 84 | 176 | 7.8 | 13.9 | 0.00 | 0.00 | 0.00 | 76 | 1005.5 |
| 20260505212102 | 84 | 197 | 8.7 | 13.9 | 0.00 | 0.00 | 0.00 | 76 | 1005.5 |
| 20260505212002 | 84 | 195 | 7.8 | 13.9 | 0.00 | 0.00 | 0.00 | 76 | 1005.5 |
| 20260505211905 | 84 | 144 | 7.8 | 13.9 | 0.00 | 0.00 | 0.00 | 76 | 1005.6 |
| 20260505211802 | 84 | 183 | 7.8 | 13.9 | 0.00 | 0.00 | 0.00 | 76 | 1005.6 |
| 20260505211701 | 84 | 217 | 7.8 | 13.9 | 0.00 | 0.00 | 0.00 | 76 | 1005.5 |
| 20260505211604 | 84 | 213 | 8.7 | 13.9 | 0.00 | 0.00 | 0.00 | 76 | 1005.5 |
| 20260505211503 | 84 | 200 | 7.8 | 13.9 | 0.00 | 0.00 | 0.00 | 76 | 1005.5 |
| 20260505211402 | 84 | 164 | 7.0 | 13.9 | 0.00 | 0.00 | 0.00 | 76 | 1005.4 |
| 20260505211302 | 84 | 193 | 7.0 | 15.6 | 0.00 | 0.00 | 0.00 | 76 | 1005.6 |
| 20260505211203 | 84 | 166 | 7.0 | 15.6 | 0.00 | 0.00 | 0.00 | 77 | 1005.6 |
| 20260505211104 | 84 | 169 | 7.0 | 15.6 | 0.00 | 0.00 | 0.00 | 77 | 1005.6 |
| 20260505211004 | 84 | 166 | 6.1 | 15.6 | 0.00 | 0.00 | 0.00 | 77 | 1005.6 |
| 20260505210904 | 84 | 243 | 5.2 | 15.6 | 0.00 | 0.00 | 0.00 | 78 | 1005.7 |
| 20260505210803 | 83 | 149 | 7.8 | 15.6 | 0.00 | 0.00 | 0.00 | 77 | 1005.6 |
| 20260505210703 | 83 | 210 | 7.8 | 15.6 | 0.00 | 0.00 | 0.00 | 77 | 1005.6 |
| 20260505210602 | 83 | 195 | 7.0 | 16.5 | 0.00 | 0.00 | 0.00 | 77 | 1005.7 |
| 20260505210504 | 83 | 219 | 8.7 | 16.5 | 0.00 | 0.00 | 0.00 | 77 | 1005.7 |
| 20260505210403 | 83 | 235 | 7.8 | 16.5 | 0.00 | 0.00 | 0.00 | 77 | 1005.7 |
| 20260505210302 | 83 | 237 | 6.1 | 16.5 | 0.00 | 0.00 | 0.00 | 78 | 1005.7 |
| 20260505210203 | 83 | 204 | 5.2 | 16.5 | 0.00 | 0.00 | 0.00 | 78 | 1005.8 |
| 20260505210003 | 83 | 196 | 5.2 | 16.5 | 0.00 | 0.00 | 0.00 | 77 | 1005.8 |
| 20260505205839 | 83 | 131 | 7.8 | 16.5 | 0.00 | 0.00 | 0.00 | 77 | 1005.8 |
| 20260505205737 | 83 | 227 | 8.7 | 16.5 | 0.00 | 0.00 | 0.00 | 77 | 1005.8 |
| 20260505205635 | 84 | 168 | 7.8 | 16.5 | 0.00 | 0.00 | 0.00 | 77 | 1005.9 |
| 20260505205534 | 84 | 169 | 7.0 | 12.2 | 0.00 | 0.00 | 0.00 | 77 | 1005.8 |
| 20260505205431 | 84 | 196 | 5.2 | 13.0 | 0.00 | 0.00 | 0.00 | 77 | 1005.9 |
| 20260505205330 | 84 | 142 | 4.3 | 13.0 | 0.00 | 0.00 | 0.00 | 76 | 1005.8 |
| 20260505205231 | 84 | 158 | 5.2 | 13.0 | 0.00 | 0.00 | 0.00 | 76 | 1005.9 |
| 20260505205132 | 84 | 120 | 5.2 | 13.0 | 0.00 | 0.00 | 0.00 | 76 | 1005.8 |
| 20260505205031 | 84 | 172 | 5.2 | 13.0 | 0.00 | 0.00 | 0.00 | 76 | 1005.9 |
| 20260505204932 | 84 | 158 | 4.3 | 13.0 | 0.00 | 0.00 | 0.00 | 76 | 1005.9 |
| 20260505204832 | 84 | 199 | 4.3 | 13.0 | 0.00 | 0.00 | 0.00 | 76 | 1005.8 |
| 20260505204732 | 84 | 171 | 5.2 | 13.0 | 0.00 | 0.00 | 0.00 | 76 | 1005.9 |
| 20260505204630 | 84 | 204 | 7.0 | 13.0 | 0.00 | 0.00 | 0.00 | 75 | 1006.0 |
| 20260505204529 | 85 | 134 | 5.2 | 13.0 | 0.00 | 0.00 | 0.00 | 76 | 1006.0 |
| 20260505204427 | 85 | 217 | 4.3 | 13.0 | 0.00 | 0.00 | 0.00 | 75 | 1005.9 |
| 20260505204327 | 85 | 169 | 7.0 | 13.0 | 0.00 | 0.00 | 0.00 | 75 | 1005.9 |
| 20260505204224 | 85 | 220 | 9.6 | 16.5 | 0.00 | 0.00 | 0.00 | 74 | 1005.9 |
| 20260505204122 | 85 | 213 | 7.8 | 16.5 | 0.00 | 0.00 | 0.00 | 74 | 1005.9 |
| 20260505204019 | 85 | 290 | 7.0 | 16.5 | 0.00 | 0.00 | 0.00 | 74 | 1005.9 |
| 20260505203914 | 85 | 289 | 6.1 | 16.5 | 0.00 | 0.00 | 0.00 | 74 | 1005.7 |
| 20260505203814 | 85 | 213 | 6.1 | 16.5 | 0.00 | 0.00 | 0.00 | 74 | 1005.8 |
| 20260505203714 | 85 | 155 | 9.6 | 16.5 | 0.00 | 0.00 | 0.00 | 74 | 1005.8 |
| 20260505203613 | 85 | 155 | 9.6 | 16.5 | 0.00 | 0.00 | 0.00 | 74 | 1005.8 |
| 20260505203514 | 85 | 155 | 9.6 | 16.5 | 0.00 | 0.00 | 0.00 | 74 | 1005.8 |
| 20260505203413 | 85 | 179 | 10.4 | 17.4 | 0.00 | 0.00 | 0.00 | 74 | 1005.9 |
| 20260505203312 | 85 | 203 | 9.6 | 17.4 | 0.00 | 0.00 | 0.00 | 74 | 1005.9 |
| 20260505203212 | 85 | 178 | 8.7 | 17.4 | 0.00 | 0.00 | 0.00 | 74 | 1006.0 |
| 20260505203113 | 85 | 182 | 8.7 | 17.4 | 0.00 | 0.00 | 0.00 | 73 | 1006.0 |
| 20260505203013 | 85 | 190 | 7.8 | 17.4 | 0.00 | 0.00 | 0.00 | 73 | 1006.0 |
| 20260505202913 | 85 | 204 | 7.8 | 17.4 | 0.00 | 0.00 | 0.00 | 73 | 1006.0 |
| 20260505202814 | 85 | 178 | 7.0 | 17.4 | 0.00 | 0.00 | 0.00 | 74 | 1006.0 |
| 20260505202714 | 85 | 221 | 7.8 | 17.4 | 0.00 | 0.00 | 0.00 | 74 | 1006.0 |
| 20260505202614 | 85 | 217 | 9.6 | 17.4 | 0.00 | 0.00 | 0.00 | 74 | 1006.0 |
| 20260505202513 | 85 | 209 | 10.4 | 17.4 | 0.00 | 0.00 | 0.00 | 73 | 1006.1 |
| 20260505202412 | 85 | 145 | 7.8 | 14.8 | 0.00 | 0.00 | 0.00 | 73 | 1006.1 |
| 20260505202313 | 85 | 171 | 6.1 | 14.8 | 0.00 | 0.00 | 0.00 | 73 | 1006.1 |
| 20260505202212 | 85 | 182 | 7.0 | 14.8 | 0.00 | 0.00 | 0.00 | 73 | 1006.1 |
| 20260505202113 | 86 | 124 | 8.7 | 14.8 | 0.00 | 0.00 | 0.00 | 73 | 1006.1 |
| 20260505202012 | 85 | 186 | 9.6 | 14.8 | 0.00 | 0.00 | 0.00 | 73 | 1006.1 |
| 20260505201912 | 85 | 241 | 7.8 | 14.8 | 0.00 | 0.00 | 0.00 | 74 | 1006.1 |
| 20260505201812 | 85 | 204 | 6.1 | 11.3 | 0.00 | 0.00 | 0.00 | 75 | 1006.1 |
| 20260505201712 | 85 | 186 | 5.2 | 12.2 | 0.00 | 0.00 | 0.00 | 74 | 1006.2 |
| 20260505201612 | 85 | 204 | 5.2 | 12.2 | 0.00 | 0.00 | 0.00 | 75 | 1006.3 |
| 20260505201512 | 85 | 162 | 5.2 | 12.2 | 0.00 | 0.00 | 0.00 | 75 | 1006.2 |
| 20260505201413 | 85 | 217 | 7.0 | 12.2 | 0.00 | 0.00 | 0.00 | 75 | 1006.2 |
| 20260505201312 | 85 | 252 | 7.0 | 12.2 | 0.00 | 0.00 | 0.00 | 75 | 1006.3 |
| 20260505201213 | 85 | 250 | 6.1 | 12.2 | 0.00 | 0.00 | 0.00 | 75 | 1006.2 |
| 20260505201113 | 85 | 179 | 6.1 | 13.9 | 0.00 | 0.00 | 0.00 | 75 | 1006.3 |
| 20260505201012 | 85 | 193 | 7.0 | 13.9 | 0.00 | 0.00 | 0.00 | 75 | 1006.3 |
| 20260505200914 | 85 | 247 | 7.8 | 16.5 | 0.00 | 0.00 | 0.00 | 75 | 1006.3 |
| 20260505200811 | 85 | 206 | 7.8 | 16.5 | 0.00 | 0.00 | 0.00 | 75 | 1006.4 |
| 20260505200713 | 85 | 217 | 7.8 | 16.5 | 0.00 | 0.00 | 0.00 | 75 | 1006.3 |
| 20260505200612 | 85 | 200 | 8.7 | 16.5 | 0.00 | 0.00 | 0.00 | 75 | 1006.4 |
| 20260505200512 | 85 | 195 | 7.0 | 16.5 | 0.00 | 0.00 | 0.00 | 75 | 1006.4 |
| 20260505200413 | 85 | 192 | 5.2 | 16.5 | 0.00 | 0.00 | 0.00 | 75 | 1006.4 |
| 20260505200313 | 85 | 202 | 6.1 | 16.5 | 0.00 | 0.00 | 0.00 | 75 | 1006.5 |
| 20260505200212 | 85 | 193 | 7.8 | 16.5 | 0.00 | 0.00 | 0.00 | 74 | 1006.4 |
| 20260505200113 | 85 | 234 | 8.7 | 16.5 | 0.00 | 0.00 | 0.00 | 74 | 1006.5 |
| 20260505200014 | 85 | 224 | 9.6 | 16.5 | 0.00 | 0.00 | 0.00 | 74 | 1006.5 |
| 20260505195913 | 85 | 250 | 9.6 | 15.6 | 0.00 | 0.00 | 0.00 | 73 | 1006.4 |
| 20260505195811 | 85 | 206 | 8.7 | 15.6 | 0.00 | 0.00 | 0.00 | 74 | 1006.4 |
| 20260505195712 | 85 | 247 | 9.6 | 15.6 | 0.00 | 0.00 | 0.00 | 74 | 1006.4 |
| 20260505195611 | 85 | 254 | 8.7 | 13.9 | 0.00 | 0.00 | 0.00 | 75 | 1006.4 |
| 20260505195511 | 85 | 190 | 7.0 | 13.9 | 0.00 | 0.00 | 0.00 | 75 | 1006.4 |
| 20260505195411 | 85 | 203 | 7.8 | 13.9 | 0.00 | 0.00 | 0.00 | 75 | 1006.5 |
| 20260505195313 | 85 | 195 | 9.6 | 13.9 | 0.00 | 0.00 | 0.00 | 75 | 1006.5 |
| 20260505195212 | 85 | 199 | 10.4 | 13.9 | 0.00 | 0.00 | 0.00 | 74 | 1006.5 |
| 20260505195112 | 85 | 185 | 8.7 | 13.9 | 0.00 | 0.00 | 0.00 | 74 | 1006.6 |
| 20260505195012 | 85 | 213 | 7.8 | 13.9 | 0.00 | 0.00 | 0.00 | 75 | 1006.6 |
| 20260505194912 | 85 | 240 | 7.0 | 13.9 | 0.00 | 0.00 | 0.00 | 75 | 1006.6 |
| 20260505194811 | 85 | 157 | 7.0 | 14.8 | 0.00 | 0.00 | 0.00 | 75 | 1006.6 |
| 20260505194712 | 85 | 161 | 7.8 | 14.8 | 0.00 | 0.00 | 0.00 | 75 | 1006.6 |
| 20260505194612 | 85 | 175 | 9.6 | 14.8 | 0.00 | 0.00 | 0.00 | 74 | 1006.6 |
| 20260505194511 | 85 | 224 | 8.7 | 14.8 | 0.00 | 0.00 | 0.00 | 74 | 1006.6 |
| 20260505194411 | 85 | 228 | 7.0 | 14.8 | 0.00 | 0.00 | 0.00 | 75 | 1006.6 |
| 20260505194313 | 85 | 185 | 7.8 | 14.8 | 0.00 | 0.00 | 0.00 | 75 | 1006.6 |
| 20260505194212 | 85 | 216 | 7.0 | 14.8 | 0.00 | 0.00 | 0.00 | 75 | 1006.7 |
| 20260505194112 | 85 | 213 | 5.2 | 14.8 | 0.00 | 0.00 | 0.00 | 76 | 1006.6 |
| 20260505194012 | 84 | 251 | 6.1 | 14.8 | 0.00 | 0.00 | 0.00 | 76 | 1006.7 |
| 20260505193912 | 84 | 217 | 7.0 | 14.8 | 0.00 | 0.00 | 0.00 | 77 | 1006.7 |
| 20260505193811 | 84 | 183 | 8.7 | 13.9 | 0.00 | 0.00 | 0.00 | 77 | 1006.7 |
| 20260505193711 | 83 | 175 | 9.6 | 13.9 | 0.00 | 0.00 | 0.00 | 77 | 1006.7 |
| 20260505193612 | 83 | 243 | 7.8 | 13.0 | 0.00 | 0.00 | 0.00 | 77 | 1006.8 |
| 20260505193512 | 83 | 186 | 6.1 | 14.8 | 0.00 | 0.00 | 0.00 | 78 | 1006.8 |
| 20260505193411 | 83 | 200 | 7.8 | 14.8 | 0.00 | 0.00 | 0.00 | 77 | 1006.7 |
| 20260505193311 | 83 | 183 | 7.8 | 14.8 | 0.00 | 0.00 | 0.00 | 77 | 1006.8 |
| 20260505193212 | 83 | 133 | 7.0 | 14.8 | 0.00 | 0.00 | 0.00 | 78 | 1006.8 |
| 20260505193111 | 83 | 223 | 7.8 | 14.8 | 0.00 | 0.00 | 0.00 | 78 | 1006.9 |
| 20260505193012 | 83 | 216 | 7.0 | 14.8 | 0.00 | 0.00 | 0.00 | 77 | 1006.8 |
| 20260505192913 | 83 | 183 | 7.8 | 14.8 | 0.00 | 0.00 | 0.00 | 77 | 1006.8 |
| 20260505192811 | 83 | 195 | 7.8 | 14.8 | 0.00 | 0.00 | 0.00 | 77 | 1006.8 |
| 20260505192711 | 83 | 193 | 6.1 | 14.8 | 0.00 | 0.00 | 0.00 | 77 | 1006.8 |
| 20260505192611 | 83 | 148 | 6.1 | 14.8 | 0.00 | 0.00 | 0.00 | 77 | 1006.8 |
| 20260505192513 | 83 | 202 | 6.1 | 12.2 | 0.00 | 0.00 | 0.00 | 77 | 1006.8 |
| 20260505192411 | 83 | 186 | 5.2 | 12.2 | 0.00 | 0.00 | 0.00 | 77 | 1006.9 |
| 20260505192311 | 83 | 209 | 4.3 | 12.2 | 0.00 | 0.00 | 0.00 | 78 | 1006.9 |
| 20260505192211 | 83 | 214 | 4.3 | 12.2 | 0.00 | 0.00 | 0.00 | 77 | 1006.8 |
| 20260505192110 | 83 | 248 | 4.3 | 14.8 | 0.00 | 0.00 | 0.00 | 77 | 1006.9 |
| 20260505192010 | 83 | 240 | 5.2 | 14.8 | 0.00 | 0.00 | 0.00 | 77 | 1006.8 |
| 20260505191911 | 83 | 221 | 7.8 | 14.8 | 0.00 | 0.00 | 0.00 | 76 | 1006.9 |
| 20260505191812 | 83 | 223 | 7.8 | 14.8 | 0.00 | 0.00 | 0.00 | 76 | 1006.9 |
| 20260505191710 | 84 | 206 | 5.2 | 14.8 | 0.00 | 0.00 | 0.00 | 76 | 1007.0 |
| 20260505191611 | 84 | 179 | 4.3 | 14.8 | 0.00 | 0.00 | 0.00 | 77 | 1007.0 |
| 20260505191513 | 84 | 199 | 4.3 | 14.8 | 0.00 | 0.00 | 0.00 | 78 | 1007.0 |
| 20260505191410 | 83 | 158 | 7.0 | 14.8 | 0.00 | 0.00 | 0.00 | 78 | 1007.0 |
| 20260505191310 | 83 | 190 | 8.7 | 14.8 | 0.00 | 0.00 | 0.00 | 77 | 1006.9 |
| 20260505191210 | 83 | 210 | 7.8 | 14.8 | 0.00 | 0.00 | 0.00 | 77 | 1007.0 |
| 20260505191111 | 83 | 159 | 7.8 | 12.2 | 0.00 | 0.00 | 0.00 | 77 | 1006.9 |
| 20260505191010 | 83 | 241 | 8.7 | 12.2 | 0.00 | 0.00 | 0.00 | 77 | 1006.9 |
| 20260505190911 | 83 | 209 | 7.8 | 12.2 | 0.00 | 0.00 | 0.00 | 77 | 1007.0 |
| 20260505190812 | 83 | 197 | 7.0 | 12.2 | 0.00 | 0.00 | 0.00 | 77 | 1007.0 |
| 20260505190711 | 83 | 152 | 6.1 | 12.2 | 0.00 | 0.00 | 0.00 | 77 | 1007.0 |
| 20260505190610 | 83 | 196 | 5.2 | 10.4 | 0.00 | 0.00 | 0.00 | 78 | 1007.0 |
| 20260505190511 | 83 | 106 | 6.1 | 10.4 | 0.00 | 0.00 | 0.00 | 78 | 1006.9 |
| 20260505190412 | 83 | 204 | 7.0 | 11.3 | 0.00 | 0.00 | 0.00 | 78 | 1007.0 |
| 20260505190310 | 83 | 168 | 6.1 | 11.3 | 0.00 | 0.00 | 0.00 | 78 | 1007.0 |
| 20260505190211 | 83 | 171 | 6.1 | 11.3 | 0.00 | 0.00 | 0.00 | 78 | 1007.0 |
| 20260505190111 | 83 | 193 | 6.1 | 11.3 | 0.00 | 0.00 | 0.00 | 78 | 1007.0 |
| 20260505190011 | 83 | 227 | 6.1 | 11.3 | 0.00 | 0.00 | 0.00 | 78 | 1007.1 |
| 20260505185910 | 83 | 206 | 6.1 | 11.3 | 0.00 | 0.00 | 0.00 | 79 | 1007.1 |
| 20260505185812 | 82 | 176 | 7.0 | 11.3 | 0.00 | 0.00 | 0.00 | 79 | 1007.1 |
| 20260505185711 | 82 | 172 | 5.2 | 13.9 | 0.00 | 0.00 | 0.00 | 79 | 1007.1 |
| 20260505185611 | 82 | 161 | 6.1 | 13.9 | 0.00 | 0.00 | 0.00 | 79 | 1007.1 |
| 20260505185510 | 82 | 227 | 7.0 | 13.9 | 0.00 | 0.00 | 0.00 | 79 | 1007.1 |
| 20260505185411 | 82 | 171 | 7.0 | 13.9 | 0.00 | 0.00 | 0.00 | 80 | 1007.1 |
| 20260505185310 | 82 | 244 | 5.2 | 13.9 | 0.00 | 0.00 | 0.00 | 79 | 1007.1 |
| 20260505185210 | 81 | 195 | 5.2 | 13.9 | 0.00 | 0.00 | 0.00 | 79 | 1007.2 |
| 20260505185112 | 82 | 234 | 7.0 | 15.6 | 0.00 | 0.00 | 0.00 | 79 | 1007.2 |
| 20260505185010 | 81 | 212 | 7.0 | 15.6 | 0.00 | 0.00 | 0.00 | 79 | 1007.2 |
| 20260505184910 | 81 | 234 | 7.8 | 15.6 | 0.00 | 0.00 | 0.00 | 79 | 1007.2 |
| 20260505184810 | 82 | 0 | 8.7 | 15.6 | 0.00 | 0.00 | 0.00 | 79 | 1007.2 |
| 20260505184712 | 82 | 0 | 7.8 | 15.6 | 0.00 | 0.00 | 0.00 | 78 | 1007.2 |
| 20260505184610 | 82 | 0 | 7.8 | 15.6 | 0.00 | 0.00 | 0.00 | 78 | 1007.2 |
| 20260505184510 | 82 | 0 | 8.7 | 15.6 | 0.00 | 0.00 | 0.00 | 78 | 1007.2 |
| 20260505184411 | 82 | 0 | 7.8 | 15.6 | 0.00 | 0.00 | 0.00 | 78 | 1007.2 |
| 20260505184309 | 82 | 117 | 7.0 | 15.6 | 0.00 | 0.00 | 0.00 | 78 | 1007.2 |
| 20260505184209 | 82 | 0 | 5.2 | 15.6 | 0.00 | 0.00 | 0.00 | 79 | 1007.2 |
| 20260505184110 | 82 | 0 | 5.2 | 13.0 | 0.00 | 0.00 | 0.00 | 79 | 1007.2 |
| 20260505184011 | 82 | 0 | 7.0 | 13.0 | 0.00 | 0.00 | 0.00 | 78 | 1007.2 |
| 20260505183910 | 82 | 0 | 6.1 | 13.0 | 0.00 | 0.00 | 0.00 | 78 | 1007.1 |
| 20260505183811 | 82 | 0 | 5.2 | 15.6 | 0.00 | 0.00 | 0.00 | 78 | 1007.1 |
| 20260505183711 | 82 | 0 | 5.2 | 15.6 | 0.00 | 0.00 | 0.00 | 79 | 1007.1 |
| 20260505183610 | 82 | 130 | 5.2 | 15.6 | 0.00 | 0.00 | 0.00 | 79 | 1007.1 |
| 20260505183510 | 82 | 116 | 6.1 | 15.6 | 0.00 | 0.00 | 0.00 | 79 | 1007.2 |
| 20260505183411 | 82 | 0 | 5.2 | 15.6 | 0.00 | 0.00 | 0.00 | 79 | 1007.1 |
| 20260505183309 | 82 | 0 | 4.3 | 15.6 | 0.00 | 0.00 | 0.00 | 79 | 1007.1 |
| 20260505183211 | 82 | 0 | 5.2 | 15.6 | 0.00 | 0.00 | 0.00 | 79 | 1007.2 |
| 20260505183110 | 82 | 0 | 7.0 | 15.6 | 0.00 | 0.00 | 0.00 | 79 | 1007.3 |
| 20260505183011 | 82 | 0 | 9.6 | 15.6 | 0.00 | 0.00 | 0.00 | 79 | 1007.2 |
| 20260505182910 | 82 | 0 | 8.7 | 15.6 | 0.00 | 0.00 | 0.00 | 79 | 1007.2 |
| 20260505182809 | 82 | 0 | 6.1 | 11.3 | 0.00 | 0.00 | 0.00 | 80 | 1007.2 |
| 20260505182709 | 81 | 130 | 7.0 | 11.3 | 0.00 | 0.00 | 0.00 | 81 | 1007.3 |
| 20260505182610 | 81 | 0 | 5.2 | 10.4 | 0.00 | 0.00 | 0.00 | 81 | 1007.3 |
| 20260505182510 | 81 | 104 | 4.3 | 9.6 | 0.00 | 0.00 | 0.00 | 81 | 1007.3 |
| 20260505182410 | 81 | 0 | 4.3 | 9.6 | 0.00 | 0.00 | 0.00 | 81 | 1007.3 |
| 20260505182311 | 81 | 114 | 3.5 | 9.6 | 0.00 | 0.00 | 0.00 | 81 | 1007.2 |
| 20260505182210 | 81 | 0 | 4.3 | 9.6 | 0.00 | 0.00 | 0.00 | 81 | 1007.3 |
| 20260505182110 | 81 | 0 | 5.2 | 10.4 | 0.00 | 0.00 | 0.00 | 81 | 1007.3 |
| 20260505182010 | 81 | 0 | 5.2 | 13.0 | 0.00 | 0.00 | 0.00 | 81 | 1007.2 |
| 20260505181911 | 81 | 0 | 4.3 | 13.0 | 0.00 | 0.00 | 0.00 | 81 | 1007.3 |
| 20260505181810 | 81 | 0 | 3.5 | 13.0 | 0.00 | 0.00 | 0.00 | 81 | 1007.3 |
| 20260505181709 | 81 | 120 | 3.5 | 13.0 | 0.00 | 0.00 | 0.00 | 81 | 1007.3 |
| 20260505181610 | 81 | 0 | 5.2 | 13.0 | 0.00 | 0.00 | 0.00 | 81 | 1007.3 |
| 20260505181509 | 81 | 107 | 5.2 | 13.0 | 0.00 | 0.00 | 0.00 | 81 | 1007.3 |
| 20260505181409 | 81 | 0 | 6.1 | 13.0 | 0.00 | 0.00 | 0.00 | 81 | 1007.3 |
| 20260505181309 | 81 | 117 | 7.0 | 13.0 | 0.00 | 0.00 | 0.00 | 81 | 1007.3 |
| 20260505181210 | 81 | 0 | 7.8 | 13.0 | 0.00 | 0.00 | 0.00 | 81 | 1007.2 |
| 20260505181110 | 81 | 0 | 6.1 | 13.0 | 0.00 | 0.00 | 0.00 | 81 | 1007.3 |
| 20260505181010 | 81 | 111 | 6.1 | 12.2 | 0.00 | 0.00 | 0.00 | 81 | 1007.3 |
| 20260505180910 | 81 | 0 | 7.8 | 12.2 | 0.00 | 0.00 | 0.00 | 81 | 1007.3 |
| 20260505180810 | 81 | 0 | 7.0 | 12.2 | 0.00 | 0.00 | 0.00 | 81 | 1007.3 |
| 20260505180711 | 81 | 0 | 7.0 | 12.2 | 0.00 | 0.00 | 0.00 | 81 | 1007.2 |
| 20260505180611 | 81 | 113 | 5.2 | 12.2 | 0.00 | 0.00 | 0.00 | 81 | 1007.4 |
| 20260505180509 | 81 | 103 | 3.5 | 12.2 | 0.00 | 0.00 | 0.00 | 81 | 1007.4 |
| 20260505180409 | 81 | 0 | 3.5 | 12.2 | 0.00 | 0.00 | 0.00 | 81 | 1007.4 |
| 20260505180309 | 81 | 28 | 3.5 | 12.2 | 0.00 | 0.00 | 0.00 | 81 | 1007.4 |
| 20260505180210 | 81 | 103 | 5.2 | 12.2 | 0.00 | 0.00 | 0.00 | 81 | 1007.4 |
| 20260505180110 | 81 | 0 | 4.3 | 13.0 | 0.00 | 0.00 | 0.00 | 81 | 1007.3 |
| 20260505180009 | 81 | 92 | 6.1 | 13.9 | 0.00 | 0.00 | 0.00 | 81 | 1007.3 |
| 20260505175909 | 81 | 113 | 7.0 | 13.9 | 0.00 | 0.00 | 0.00 | 81 | 1007.3 |
| 20260505175811 | 81 | 0 | 7.0 | 13.9 | 0.00 | 0.00 | 0.00 | 81 | 1007.3 |
| 20260505175709 | 81 | 0 | 6.1 | 13.9 | 0.00 | 0.00 | 0.00 | 81 | 1007.4 |
| 20260505175609 | 81 | 0 | 4.3 | 13.9 | 0.00 | 0.00 | 0.00 | 81 | 1007.4 |
| 20260505175510 | 81 | 0 | 3.5 | 13.9 | 0.00 | 0.00 | 0.00 | 81 | 1007.4 |
| 20260505175409 | 81 | 103 | 5.2 | 13.9 | 0.00 | 0.00 | 0.00 | 81 | 1007.4 |
| 20260505175309 | 81 | 0 | 7.8 | 13.9 | 0.00 | 0.00 | 0.00 | 81 | 1007.4 |
| 20260505175208 | 81 | 0 | 7.8 | 13.9 | 0.00 | 0.00 | 0.00 | 80 | 1007.4 |
| 20260505175110 | 81 | 0 | 7.0 | 13.9 | 0.00 | 0.00 | 0.00 | 81 | 1007.5 |
| 20260505175010 | 81 | 0 | 7.8 | 13.0 | 0.00 | 0.00 | 0.00 | 80 | 1007.5 |
| 20260505174910 | 81 | 0 | 7.8 | 13.0 | 0.00 | 0.00 | 0.00 | 80 | 1007.4 |
| 20260505174809 | 81 | 0 | 5.2 | 11.3 | 0.00 | 0.00 | 0.00 | 81 | 1007.4 |
| 20260505174708 | 81 | 0 | 4.3 | 11.3 | 0.00 | 0.00 | 0.00 | 81 | 1007.4 |
| 20260505174609 | 81 | 106 | 4.3 | 11.3 | 0.00 | 0.00 | 0.00 | 81 | 1007.5 |
| 20260505174508 | 81 | 0 | 4.3 | 11.3 | 0.00 | 0.00 | 0.00 | 81 | 1007.5 |
| 20260505174409 | 81 | 0 | 3.5 | 11.3 | 0.00 | 0.00 | 0.00 | 81 | 1007.5 |
| 20260505174309 | 81 | 0 | 4.3 | 12.2 | 0.00 | 0.00 | 0.00 | 81 | 1007.6 |
| 20260505174209 | 80 | 0 | 6.1 | 12.2 | 0.00 | 0.00 | 0.00 | 81 | 1007.5 |
| 20260505174109 | 80 | 102 | 7.8 | 12.2 | 0.00 | 0.00 | 0.00 | 81 | 1007.5 |
| 20260505174008 | 80 | 116 | 7.8 | 12.2 | 0.00 | 0.00 | 0.00 | 81 | 1007.6 |
| 20260505173909 | 80 | 103 | 7.0 | 12.2 | 0.00 | 0.00 | 0.00 | 81 | 1007.6 |
| 20260505173811 | 80 | 96 | 6.1 | 12.2 | 0.00 | 0.00 | 0.00 | 81 | 1007.6 |
| 20260505173709 | 80 | 0 | 6.1 | 13.0 | 0.00 | 0.00 | 0.00 | 81 | 1007.6 |
| 20260505173608 | 80 | 0 | 6.1 | 13.0 | 0.00 | 0.00 | 0.00 | 81 | 1007.6 |
| 20260505173508 | 80 | 85 | 6.1 | 13.0 | 0.00 | 0.00 | 0.00 | 81 | 1007.6 |
| 20260505173410 | 80 | 0 | 6.1 | 13.0 | 0.00 | 0.00 | 0.00 | 81 | 1007.7 |
| 20260505173309 | 80 | 0 | 5.2 | 13.0 | 0.00 | 0.00 | 0.00 | 81 | 1007.7 |
| 20260505173209 | 80 | 0 | 5.2 | 13.0 | 0.00 | 0.00 | 0.00 | 81 | 1007.7 |
| 20260505173109 | 80 | 0 | 6.1 | 13.0 | 0.00 | 0.00 | 0.00 | 81 | 1007.7 |
| 20260505173009 | 80 | 0 | 5.2 | 13.0 | 0.00 | 0.00 | 0.00 | 82 | 1007.7 |
| 20260505172909 | 80 | 110 | 7.0 | 13.0 | 0.00 | 0.00 | 0.00 | 81 | 1007.7 |
| 20260505172808 | 80 | 0 | 7.8 | 13.0 | 0.00 | 0.00 | 0.00 | 81 | 1007.7 |
| 20260505172711 | 80 | 0 | 7.8 | 13.0 | 0.00 | 0.00 | 0.00 | 81 | 1007.7 |
| 20260505172610 | 80 | 97 | 6.1 | 13.0 | 0.00 | 0.00 | 0.00 | 82 | 1007.8 |
| 20260505172508 | 80 | 90 | 4.3 | 13.0 | 0.00 | 0.00 | 0.00 | 82 | 1007.7 |
| 20260505172410 | 80 | 0 | 5.2 | 13.0 | 0.00 | 0.00 | 0.00 | 82 | 1007.7 |
| 20260505172308 | 80 | 118 | 7.0 | 13.0 | 0.00 | 0.00 | 0.00 | 82 | 1007.7 |
| 20260505172208 | 80 | 113 | 6.1 | 13.0 | 0.00 | 0.00 | 0.00 | 82 | 1007.7 |
| 20260505172109 | 80 | 0 | 7.8 | 13.0 | 0.00 | 0.00 | 0.00 | 82 | 1007.7 |
| 20260505172009 | 80 | 0 | 7.8 | 13.0 | 0.00 | 0.00 | 0.00 | 83 | 1007.7 |
| 20260505171908 | 80 | 106 | 7.0 | 13.0 | 0.00 | 0.00 | 0.00 | 83 | 1007.8 |
| 20260505171808 | 80 | 0 | 6.1 | 13.0 | 0.00 | 0.00 | 0.00 | 83 | 1007.7 |
| 20260505171710 | 79 | 94 | 6.1 | 12.2 | 0.00 | 0.00 | 0.00 | 83 | 1007.8 |
| 20260505171608 | 79 | 104 | 7.0 | 10.4 | 0.00 | 0.00 | 0.00 | 84 | 1007.8 |
| 20260505171509 | 79 | 0 | 6.1 | 12.2 | 0.00 | 0.00 | 0.00 | 84 | 1007.7 |
| 20260505171408 | 79 | 0 | 4.3 | 12.2 | 0.00 | 0.00 | 0.00 | 84 | 1007.7 |
| 20260505171309 | 79 | 0 | 5.2 | 12.2 | 0.00 | 0.00 | 0.00 | 84 | 1007.8 |
| 20260505171207 | 79 | 110 | 6.1 | 12.2 | 0.00 | 0.00 | 0.00 | 84 | 1007.8 |
| 20260505171108 | 79 | 123 | 6.1 | 12.2 | 0.00 | 0.00 | 0.00 | 84 | 1007.8 |
| 20260505171010 | 79 | 102 | 6.1 | 12.2 | 0.00 | 0.00 | 0.00 | 84 | 1007.9 |
| 20260505170909 | 79 | 114 | 5.2 | 12.2 | 0.00 | 0.00 | 0.00 | 84 | 1007.9 |
| 20260505170808 | 79 | 86 | 6.1 | 12.2 | 0.00 | 0.00 | 0.00 | 84 | 1007.9 |
| 20260505170710 | 79 | 109 | 7.0 | 12.2 | 0.00 | 0.00 | 0.00 | 84 | 1007.8 |
| 20260505170611 | 79 | 117 | 7.8 | 12.2 | 0.00 | 0.00 | 0.00 | 84 | 1007.8 |
| 20260505170508 | 79 | 106 | 6.1 | 12.2 | 0.00 | 0.00 | 0.00 | 84 | 1007.9 |
| 20260505170408 | 79 | 110 | 4.3 | 9.6 | 0.00 | 0.00 | 0.00 | 83 | 1007.9 |
| 20260505170310 | 79 | 97 | 4.3 | 9.6 | 0.00 | 0.00 | 0.00 | 83 | 1007.9 |
| 20260505170208 | 79 | 107 | 5.2 | 9.6 | 0.00 | 0.00 | 0.00 | 83 | 1007.8 |
| 20260505170108 | 79 | 99 | 5.2 | 9.6 | 0.00 | 0.00 | 0.00 | 82 | 1007.8 |
| 20260505170008 | 80 | 0 | 4.3 | 13.0 | 0.00 | 0.00 | 0.00 | 82 | 1007.8 |
| 20260505165909 | 80 | 109 | 4.3 | 13.0 | 0.00 | 0.00 | 0.00 | 82 | 1007.8 |
| 20260505165808 | 80 | 100 | 4.3 | 13.0 | 0.00 | 0.00 | 0.00 | 82 | 1007.8 |
| 20260505165708 | 80 | 0 | 3.5 | 13.0 | 0.00 | 0.00 | 0.00 | 82 | 1007.8 |
| 20260505165608 | 80 | 104 | 5.2 | 13.0 | 0.00 | 0.00 | 0.00 | 82 | 1007.9 |
| 20260505165507 | 80 | 114 | 6.1 | 13.0 | 0.00 | 0.00 | 0.00 | 82 | 1007.8 |
| 20260505165407 | 80 | 100 | 6.1 | 13.0 | 0.00 | 0.00 | 0.00 | 82 | 1007.8 |
| 20260505165309 | 80 | 0 | 6.1 | 13.0 | 0.00 | 0.00 | 0.00 | 82 | 1007.8 |
| 20260505165208 | 80 | 113 | 7.8 | 13.0 | 0.00 | 0.00 | 0.00 | 82 | 1007.9 |
| 20260505165108 | 80 | 0 | 9.6 | 13.0 | 0.00 | 0.00 | 0.00 | 82 | 1007.9 |
| 20260505165008 | 80 | 104 | 8.7 | 12.2 | 0.00 | 0.00 | 0.00 | 82 | 1007.8 |
| 20260505164909 | 80 | 107 | 7.0 | 13.9 | 0.00 | 0.00 | 0.00 | 82 | 1007.9 |
| 20260505164808 | 80 | 120 | 6.1 | 13.9 | 0.00 | 0.00 | 0.00 | 82 | 1007.9 |
| 20260505164707 | 80 | 107 | 7.0 | 13.9 | 0.00 | 0.00 | 0.00 | 81 | 1007.9 |
| 20260505164610 | 80 | 128 | 6.1 | 13.9 | 0.00 | 0.00 | 0.00 | 82 | 1007.8 |
| 20260505164509 | 80 | 89 | 6.1 | 13.9 | 0.00 | 0.00 | 0.00 | 82 | 1007.8 |
| 20260505164408 | 80 | 0 | 7.0 | 13.9 | 0.00 | 0.00 | 0.00 | 82 | 1007.8 |
| 20260505164307 | 80 | 104 | 5.2 | 13.9 | 0.00 | 0.00 | 0.00 | 82 | 1007.8 |
| 20260505164209 | 80 | 94 | 5.2 | 13.9 | 0.00 | 0.00 | 0.00 | 82 | 1007.9 |
| 20260505164107 | 80 | 0 | 7.0 | 14.8 | 0.00 | 0.00 | 0.00 | 82 | 1007.8 |
| 20260505164007 | 80 | 116 | 7.0 | 14.8 | 0.00 | 0.00 | 0.00 | 82 | 1007.8 |
| 20260505163910 | 80 | 104 | 6.1 | 14.8 | 0.00 | 0.00 | 0.00 | 82 | 1007.8 |
| 20260505163808 | 80 | 79 | 4.3 | 14.8 | 0.00 | 0.00 | 0.00 | 82 | 1007.8 |
| 20260505163707 | 80 | 86 | 5.2 | 14.8 | 0.00 | 0.00 | 0.00 | 82 | 1007.8 |
| 20260505163609 | 80 | 0 | 6.1 | 14.8 | 0.00 | 0.00 | 0.00 | 82 | 1007.8 |
| 20260505163508 | 80 | 102 | 7.0 | 14.8 | 0.00 | 0.00 | 0.00 | 82 | 1007.8 |
| 20260505163407 | 80 | 94 | 7.8 | 14.8 | 0.00 | 0.00 | 0.00 | 82 | 1007.8 |
| 20260505163307 | 80 | 109 | 7.8 | 14.8 | 0.00 | 0.00 | 0.00 | 82 | 1007.8 |
| 20260505163208 | 80 | 102 | 7.0 | 14.8 | 0.00 | 0.00 | 0.00 | 82 | 1007.8 |
| 20260505163107 | 80 | 0 | 5.2 | 11.3 | 0.00 | 0.00 | 0.00 | 82 | 1007.8 |
| 20260505163009 | 80 | 116 | 6.1 | 11.3 | 0.00 | 0.00 | 0.00 | 82 | 1007.8 |
| 20260505162908 | 80 | 100 | 7.0 | 11.3 | 0.00 | 0.00 | 0.00 | 82 | 1007.8 |
| 20260505162808 | 80 | 82 | 6.1 | 11.3 | 0.00 | 0.00 | 0.00 | 82 | 1007.8 |
| 20260505162707 | 80 | 104 | 5.2 | 11.3 | 0.00 | 0.00 | 0.00 | 82 | 1007.7 |
| 20260505162607 | 80 | 104 | 5.2 | 11.3 | 0.00 | 0.00 | 0.00 | 82 | 1007.7 |
| 20260505162508 | 79 | 107 | 5.2 | 11.3 | 0.00 | 0.00 | 0.00 | 82 | 1007.7 |
| 20260505162407 | 79 | 99 | 6.1 | 11.3 | 0.00 | 0.00 | 0.00 | 83 | 1007.7 |
| 20260505162307 | 79 | 130 | 7.0 | 11.3 | 0.00 | 0.00 | 0.00 | 82 | 1007.8 |
| 20260505162208 | 79 | 107 | 6.1 | 11.3 | 0.00 | 0.00 | 0.00 | 82 | 1007.7 |
| 20260505162107 | 79 | 116 | 5.2 | 11.3 | 0.00 | 0.00 | 0.00 | 82 | 1007.8 |
| 20260505162006 | 79 | 103 | 4.3 | 11.3 | 0.00 | 0.00 | 0.00 | 83 | 1007.9 |
| 20260505161907 | 79 | 124 | 5.2 | 11.3 | 0.00 | 0.00 | 0.00 | 83 | 1007.8 |
| 20260505161809 | 79 | 117 | 6.1 | 11.3 | 0.00 | 0.00 | 0.00 | 83 | 1007.7 |
| 20260505161708 | 79 | 104 | 6.1 | 11.3 | 0.00 | 0.00 | 0.00 | 83 | 1007.8 |
| 20260505161606 | 79 | 106 | 4.3 | 8.7 | 0.00 | 0.00 | 0.00 | 83 | 1007.7 |
| 20260505161507 | 79 | 8 | 3.5 | 8.7 | 0.00 | 0.00 | 0.00 | 83 | 1007.7 |
| 20260505161407 | 79 | 100 | 2.6 | 8.7 | 0.00 | 0.00 | 0.00 | 83 | 1007.7 |
| 20260505161307 | 79 | 135 | 2.6 | 8.7 | 0.00 | 0.00 | 0.00 | 83 | 1007.7 |
| 20260505161207 | 79 | 93 | 3.5 | 8.7 | 0.00 | 0.00 | 0.00 | 83 | 1007.7 |
| 20260505161107 | 79 | 107 | 5.2 | 8.7 | 0.00 | 0.00 | 0.00 | 83 | 1007.7 |
| 20260505161007 | 79 | 111 | 5.2 | 8.7 | 0.00 | 0.00 | 0.00 | 84 | 1007.7 |
| 20260505160906 | 79 | 97 | 3.5 | 9.6 | 0.00 | 0.00 | 0.00 | 84 | 1007.7 |
| 20260505160806 | 79 | 110 | 3.5 | 9.6 | 0.00 | 0.00 | 0.00 | 84 | 1007.7 |
| 20260505160707 | 79 | 94 | 5.2 | 9.6 | 0.00 | 0.00 | 0.00 | 83 | 1007.7 |
| 20260505160607 | 79 | 96 | 5.2 | 9.6 | 0.00 | 0.00 | 0.00 | 84 | 1007.7 |
| 20260505160507 | 79 | 113 | 3.5 | 9.6 | 0.00 | 0.00 | 0.00 | 84 | 1007.8 |
| 20260505160407 | 79 | 86 | 3.5 | 9.6 | 0.00 | 0.00 | 0.00 | 84 | 1007.8 |
| 20260505160307 | 79 | 86 | 5.2 | 9.6 | 0.00 | 0.00 | 0.00 | 83 | 1007.8 |
| 20260505160206 | 79 | 92 | 5.2 | 9.6 | 0.00 | 0.00 | 0.00 | 83 | 1007.7 |
| 20260505160107 | 79 | 103 | 5.2 | 9.6 | 0.00 | 0.00 | 0.00 | 83 | 1007.7 |
| 20260505153303 | 78 | 155 | 7.0 | 10.4 | 0.00 | 0.00 | 0.00 | 83 | 1007.5 |
| 20260505153202 | 78 | 125 | 7.0 | 10.4 | 0.00 | 0.00 | 0.00 | 83 | 1007.6 |
| 20260505153103 | 78 | 125 | 5.2 | 10.4 | 0.00 | 0.00 | 0.00 | 83 | 1007.6 |
| 20260505153004 | 78 | 130 | 5.2 | 10.4 | 0.00 | 0.00 | 0.00 | 83 | 1007.6 |
| 20260505152903 | 78 | 87 | 5.2 | 10.4 | 0.00 | 0.00 | 0.00 | 83 | 1007.6 |
| 20260505152802 | 78 | 104 | 5.2 | 10.4 | 0.00 | 0.00 | 0.00 | 83 | 1007.6 |
| 20260505152703 | 78 | 107 | 5.2 | 10.4 | 0.00 | 0.00 | 0.00 | 83 | 1007.6 |
| 20260505152603 | 78 | 109 | 4.3 | 10.4 | 0.00 | 0.00 | 0.00 | 83 | 1007.6 |
| 20260505152503 | 78 | 110 | 5.2 | 10.4 | 0.00 | 0.00 | 0.00 | 83 | 1007.5 |
| 20260505152403 | 78 | 78 | 6.1 | 10.4 | 0.00 | 0.00 | 0.00 | 83 | 1007.6 |
| 20260505152305 | 78 | 103 | 5.2 | 10.4 | 0.00 | 0.00 | 0.00 | 83 | 1007.5 |
| 20260505152203 | 78 | 94 | 6.1 | 10.4 | 0.00 | 0.00 | 0.00 | 83 | 1007.6 |
| 20260505152103 | 78 | 111 | 6.1 | 10.4 | 0.00 | 0.00 | 0.00 | 83 | 1007.5 |
| 20260505152003 | 78 | 117 | 5.2 | 10.4 | 0.00 | 0.00 | 0.00 | 83 | 1007.5 |
| 20260505151902 | 78 | 117 | 5.2 | 11.3 | 0.00 | 0.00 | 0.00 | 83 | 1007.5 |
| 20260505151802 | 78 | 100 | 4.3 | 11.3 | 0.00 | 0.00 | 0.00 | 84 | 1007.4 |
| 20260505151703 | 78 | 87 | 4.3 | 11.3 | 0.00 | 0.00 | 0.00 | 84 | 1007.4 |
| 20260505151603 | 78 | 124 | 4.3 | 13.0 | 0.00 | 0.00 | 0.00 | 84 | 1007.5 |
| 20260505151503 | 78 | 94 | 3.5 | 13.0 | 0.00 | 0.00 | 0.00 | 84 | 1007.5 |
| 20260505151403 | 78 | 140 | 5.2 | 13.0 | 0.00 | 0.00 | 0.00 | 84 | 1007.4 |
| 20260505151303 | 78 | 118 | 5.2 | 13.0 | 0.00 | 0.00 | 0.00 | 84 | 1007.5 |
| 20260505151203 | 78 | 96 | 6.1 | 13.0 | 0.00 | 0.00 | 0.00 | 84 | 1007.5 |
| 20260505151103 | 78 | 86 | 6.1 | 13.0 | 0.00 | 0.00 | 0.00 | 84 | 1007.5 |
| 20260505151004 | 78 | 123 | 7.0 | 13.0 | 0.00 | 0.00 | 0.00 | 84 | 1007.5 |
| 20260505150903 | 78 | 94 | 6.1 | 13.0 | 0.00 | 0.00 | 0.00 | 84 | 1007.5 |
| 20260505150803 | 78 | 102 | 7.0 | 13.0 | 0.00 | 0.00 | 0.00 | 84 | 1007.5 |
| 20260505150702 | 78 | 82 | 7.8 | 13.0 | 0.00 | 0.00 | 0.00 | 84 | 1007.5 |
| 20260505150604 | 78 | 134 | 7.0 | 13.0 | 0.00 | 0.00 | 0.00 | 84 | 1007.5 |
| 20260505150502 | 78 | 124 | 6.1 | 12.2 | 0.00 | 0.00 | 0.00 | 84 | 1007.6 |
| 20260505150402 | 78 | 111 | 6.1 | 12.2 | 0.00 | 0.00 | 0.00 | 84 | 1007.6 |
| 20260505150304 | 78 | 106 | 5.2 | 12.2 | 0.00 | 0.00 | 0.00 | 84 | 1007.6 |
| 20260505150203 | 78 | 86 | 4.3 | 12.2 | 0.00 | 0.00 | 0.00 | 84 | 1007.5 |
| 20260505140602 | 77 | 100 | 5.2 | 15.6 | 0.00 | 0.00 | 0.00 | 86 | 1007.2 |
| 20260505140502 | 77 | 83 | 6.1 | 15.6 | 0.00 | 0.00 | 0.00 | 86 | 1007.2 |
| 20260505140403 | 77 | 113 | 7.8 | 15.6 | 0.00 | 0.00 | 0.00 | 87 | 1007.3 |
| 20260505140301 | 77 | 93 | 8.7 | 15.6 | 0.00 | 0.00 | 0.00 | 87 | 1007.4 |
| 20260505140203 | 76 | 87 | 7.0 | 13.9 | 0.00 | 0.00 | 0.00 | 87 | 1007.4 |
| 20260505130212 | 75 | 65 | 5.2 | 13.9 | 0.00 | 0.00 | 0.00 | 88 | 1007.1 |
| 20260505130111 | 75 | 79 | 5.2 | 13.9 | 0.00 | 0.00 | 0.00 | 88 | 1007.0 |
| 20260505125003 | 75 | 82 | 4.3 | 9.6 | 0.00 | 0.00 | 0.00 | 89 | 1007.0 |
| 20260505124903 | 75 | 104 | 3.5 | 8.7 | 0.00 | 0.00 | 0.00 | 89 | 1007.0 |
| 20260505124803 | 75 | 76 | 3.5 | 8.7 | 0.00 | 0.00 | 0.00 | 89 | 1007.0 |
| 20260505124704 | 75 | 69 | 3.5 | 8.7 | 0.00 | 0.00 | 0.00 | 89 | 1007.1 |
| 20260505124603 | 75 | 96 | 3.5 | 8.7 | 0.00 | 0.00 | 0.00 | 89 | 1007.0 |
| 20260505124502 | 75 | 99 | 3.5 | 10.4 | 0.00 | 0.00 | 0.00 | 89 | 1007.0 |
| 20260505124403 | 74 | 73 | 3.5 | 10.4 | 0.00 | 0.00 | 0.00 | 89 | 1007.0 |
| 20260505124304 | 74 | 72 | 3.5 | 10.4 | 0.00 | 0.00 | 0.00 | 89 | 1007.0 |
| 20260505124202 | 74 | 80 | 4.3 | 10.4 | 0.00 | 0.00 | 0.00 | 89 | 1007.1 |
| 20260505124101 | 74 | 79 | 3.5 | 10.4 | 0.00 | 0.00 | 0.00 | 89 | 1007.1 |
| 20260505124002 | 74 | 87 | 3.5 | 10.4 | 0.00 | 0.00 | 0.00 | 89 | 1007.1 |
| 20260505123903 | 74 | 76 | 3.5 | 10.4 | 0.00 | 0.00 | 0.00 | 90 | 1007.1 |
| 20260505123802 | 74 | 47 | 3.5 | 10.4 | 0.00 | 0.00 | 0.00 | 90 | 1007.1 |
| 20260505123702 | 74 | 0 | 5.2 | 10.4 | 0.00 | 0.00 | 0.00 | 89 | 1007.1 |
| 20260505123604 | 74 | 0 | 6.1 | 10.4 | 0.00 | 0.00 | 0.00 | 89 | 1007.1 |
| 20260505123504 | 74 | 71 | 4.3 | 8.7 | 0.00 | 0.00 | 0.00 | 89 | 1007.2 |
| 20260505123401 | 74 | 72 | 4.3 | 8.7 | 0.00 | 0.00 | 0.00 | 89 | 1007.1 |
| 20260505123304 | 74 | 45 | 4.3 | 8.7 | 0.00 | 0.00 | 0.00 | 89 | 1007.1 |
| 20260505123203 | 74 | 45 | 3.5 | 8.7 | 0.00 | 0.00 | 0.00 | 89 | 1007.1 |
| 20260505123104 | 74 | 25 | 4.3 | 8.7 | 0.00 | 0.00 | 0.00 | 89 | 1007.0 |
| 20260505123003 | 74 | 45 | 4.3 | 8.7 | 0.00 | 0.00 | 0.00 | 90 | 1007.0 |
| 20260505122904 | 74 | 24 | 3.5 | 8.7 | 0.00 | 0.00 | 0.00 | 90 | 1007.0 |
| 20260505122804 | 74 | 42 | 3.5 | 8.7 | 0.00 | 0.00 | 0.00 | 90 | 1007.1 |
| 20260505122702 | 74 | 0 | 2.6 | 8.7 | 0.00 | 0.00 | 0.00 | 90 | 1007.2 |
| 20260505122602 | 74 | 35 | 2.6 | 6.1 | 0.00 | 0.00 | 0.00 | 90 | 1007.1 |
| 20260505122503 | 74 | 0 | 3.5 | 6.1 | 0.00 | 0.00 | 0.00 | 90 | 1007.1 |
| 20260505122403 | 74 | 48 | 3.5 | 6.1 | 0.00 | 0.00 | 0.00 | 90 | 1007.0 |
| 20260505122305 | 74 | 34 | 2.6 | 6.1 | 0.00 | 0.00 | 0.00 | 90 | 1007.0 |
| 20260505122203 | 74 | 47 | 2.6 | 6.1 | 0.00 | 0.00 | 0.00 | 90 | 1007.1 |
| 20260505122102 | 74 | 39 | 2.6 | 6.1 | 0.00 | 0.00 | 0.00 | 90 | 1007.1 |
| 20260505122002 | 74 | 31 | 1.7 | 6.1 | 0.00 | 0.00 | 0.00 | 90 | 1007.2 |
| 20260505121903 | 74 | 37 | 2.6 | 6.1 | 0.00 | 0.00 | 0.00 | 90 | 1007.1 |
| 20260505121801 | 74 | 0 | 3.5 | 8.7 | 0.00 | 0.00 | 0.00 | 90 | 1007.1 |
| 20260505121702 | 74 | 0 | 2.6 | 8.7 | 0.00 | 0.00 | 0.00 | 90 | 1007.0 |
| 20260505121602 | 74 | 41 | 1.7 | 8.7 | 0.00 | 0.00 | 0.00 | 90 | 1007.0 |
| 20260505121502 | 74 | 0 | 2.6 | 8.7 | 0.00 | 0.00 | 0.00 | 90 | 1007.0 |
| 20260505121401 | 74 | 42 | 2.6 | 8.7 | 0.00 | 0.00 | 0.00 | 90 | 1007.0 |
| 20260505121301 | 74 | 34 | 2.6 | 8.7 | 0.00 | 0.00 | 0.00 | 90 | 1006.9 |
| 20260505121203 | 74 | 28 | 2.6 | 9.6 | 0.00 | 0.00 | 0.00 | 89 | 1006.8 |
| 20260505121101 | 74 | 32 | 3.5 | 9.6 | 0.00 | 0.00 | 0.00 | 89 | 1006.7 |
| 20260505121001 | 74 | 45 | 3.5 | 9.6 | 0.00 | 0.00 | 0.00 | 89 | 1006.7 |
| 20260505120901 | 74 | 32 | 3.5 | 9.6 | 0.00 | 0.00 | 0.00 | 89 | 1006.7 |
| 20260505120802 | 74 | 27 | 3.5 | 9.6 | 0.00 | 0.00 | 0.00 | 89 | 1006.6 |
| 20260505120701 | 74 | 35 | 3.5 | 9.6 | 0.00 | 0.00 | 0.00 | 89 | 1006.5 |
| 20260505120601 | 74 | 45 | 3.5 | 13.0 | 0.00 | 0.00 | 0.00 | 89 | 1006.6 |
| 20260505120503 | 74 | 41 | 3.5 | 13.0 | 0.00 | 0.00 | 0.00 | 89 | 1006.6 |
| 20260505120401 | 74 | 0 | 5.2 | 13.0 | 0.00 | 0.00 | 0.00 | 89 | 1006.5 |
| 20260505120300 | 74 | 0 | 5.2 | 13.0 | 0.00 | 0.00 | 0.00 | 89 | 1006.6 |
| 20260505120202 | 74 | 41 | 3.5 | 13.0 | 0.00 | 0.00 | 0.00 | 89 | 1006.6 |
| 20260505120002 | 74 | 37 | 4.3 | 13.0 | 0.00 | 0.00 | 0.00 | 89 | 1006.7 |
| 20260505115901 | 74 | 44 | 4.3 | 13.0 | 0.00 | 0.00 | 0.00 | 89 | 1006.6 |
| 20260505115802 | 74 | 45 | 4.3 | 13.0 | 0.00 | 0.00 | 0.00 | 89 | 1006.6 |
| 20260505115702 | 74 | 39 | 4.3 | 13.0 | 0.00 | 0.00 | 0.00 | 89 | 1006.6 |
| 20260505115601 | 74 | 37 | 3.5 | 12.2 | 0.00 | 0.00 | 0.00 | 89 | 1006.5 |
| 20260505115502 | 74 | 0 | 3.5 | 12.2 | 0.00 | 0.00 | 0.00 | 89 | 1006.6 |
| 20260505115402 | 74 | 30 | 3.5 | 12.2 | 0.00 | 0.00 | 0.00 | 89 | 1006.6 |
| 20260505115300 | 74 | 52 | 4.3 | 12.2 | 0.00 | 0.00 | 0.00 | 89 | 1006.6 |
| 20260505115200 | 74 | 49 | 5.2 | 12.2 | 0.00 | 0.00 | 0.00 | 89 | 1006.6 |
| 20260505115103 | 74 | 44 | 5.2 | 12.2 | 0.00 | 0.00 | 0.00 | 89 | 1006.6 |
| 20260505115000 | 74 | 34 | 4.3 | 12.2 | 0.00 | 0.00 | 0.00 | 89 | 1006.7 |
| 20260505114901 | 74 | 56 | 5.2 | 12.2 | 0.00 | 0.00 | 0.00 | 89 | 1006.7 |
| 20260505114801 | 74 | 44 | 7.8 | 12.2 | 0.00 | 0.00 | 0.00 | 89 | 1006.8 |
| 20260505114702 | 74 | 0 | 7.0 | 12.2 | 0.00 | 0.00 | 0.00 | 89 | 1006.9 |
| 20260505114601 | 74 | 41 | 5.2 | 12.2 | 0.00 | 0.00 | 0.00 | 89 | 1006.9 |
| 20260505114500 | 74 | 0 | 5.2 | 12.2 | 0.00 | 0.00 | 0.00 | 89 | 1006.9 |
| 20260505114402 | 74 | 41 | 5.2 | 12.2 | 0.00 | 0.00 | 0.00 | 89 | 1006.9 |
| 20260505114301 | 73 | 0 | 5.2 | 12.2 | 0.00 | 0.00 | 0.00 | 89 | 1007.0 |
| 20260505114201 | 74 | 0 | 4.3 | 10.4 | 0.00 | 0.00 | 0.00 | 89 | 1007.0 |
| 20260505114100 | 74 | 0 | 4.3 | 10.4 | 0.00 | 0.00 | 0.00 | 89 | 1007.1 |
| 20260505114000 | 73 | 0 | 4.3 | 10.4 | 0.00 | 0.00 | 0.00 | 89 | 1007.1 |
| 20260505113900 | 73 | 0 | 3.5 | 10.4 | 0.00 | 0.00 | 0.00 | 89 | 1007.0 |
| 20260505113800 | 74 | 0 | 1.7 | 10.4 | 0.00 | 0.00 | 0.00 | 89 | 1007.0 |
| 20260505113700 | 73 | 0 | 3.5 | 10.4 | 0.00 | 0.00 | 0.00 | 89 | 1007.1 |
| 20260505113600 | 73 | 32 | 5.2 | 10.4 | 0.00 | 0.00 | 0.00 | 89 | 1006.9 |
| 20260505113501 | 73 | 28 | 3.5 | 9.6 | 0.00 | 0.00 | 0.00 | 89 | 1007.0 |
| 20260505113401 | 73 | 34 | 3.5 | 9.6 | 0.00 | 0.00 | 0.00 | 89 | 1006.9 |
| 20260505113300 | 73 | 42 | 4.3 | 9.6 | 0.00 | 0.00 | 0.00 | 89 | 1006.9 |
| 20260505113200 | 73 | 41 | 4.3 | 9.6 | 0.00 | 0.00 | 0.00 | 90 | 1006.9 |
| 20260505113100 | 73 | 0 | 4.3 | 9.6 | 0.00 | 0.00 | 0.00 | 89 | 1006.9 |
| 20260505113002 | 73 | 0 | 5.2 | 9.6 | 0.00 | 0.00 | 0.00 | 89 | 1006.9 |
| 20260505112901 | 73 | 39 | 4.3 | 9.6 | 0.00 | 0.00 | 0.00 | 89 | 1006.9 |
| 20260505112800 | 73 | 47 | 4.3 | 9.6 | 0.00 | 0.00 | 0.00 | 89 | 1006.9 |
| 20260505112701 | 73 | 39 | 3.5 | 7.8 | 0.00 | 0.00 | 0.00 | 89 | 1006.8 |
| 20260505112602 | 73 | 47 | 3.5 | 7.8 | 0.00 | 0.00 | 0.00 | 89 | 1006.8 |
| 20260505112501 | 73 | 0 | 4.3 | 7.8 | 0.00 | 0.00 | 0.00 | 89 | 1006.7 |
| 20260505112400 | 73 | 44 | 3.5 | 8.7 | 0.00 | 0.00 | 0.00 | 89 | 1006.7 |
| 20260505112301 | 73 | 41 | 2.6 | 8.7 | 0.00 | 0.00 | 0.00 | 89 | 1006.7 |
| 20260505112200 | 73 | 42 | 1.7 | 8.7 | 0.00 | 0.00 | 0.00 | 89 | 1006.7 |
| 20260505112100 | 73 | 35 | 3.5 | 8.7 | 0.00 | 0.00 | 0.00 | 89 | 1006.7 |
| 20260505112000 | 73 | 41 | 4.3 | 8.7 | 0.00 | 0.00 | 0.00 | 89 | 1006.8 |
| 20260505111900 | 73 | 45 | 3.5 | 8.7 | 0.00 | 0.00 | 0.00 | 89 | 1006.7 |
| 20260505111800 | 73 | 41 | 3.5 | 8.7 | 0.00 | 0.00 | 0.00 | 90 | 1006.7 |
| 20260505111701 | 73 | 44 | 2.6 | 8.7 | 0.00 | 0.00 | 0.00 | 89 | 1006.7 |
| 20260505111602 | 73 | 42 | 3.5 | 8.7 | 0.00 | 0.00 | 0.00 | 89 | 1006.7 |
| 20260505111501 | 73 | 0 | 3.5 | 8.7 | 0.00 | 0.00 | 0.00 | 89 | 1006.7 |
| 20260505111400 | 73 | 42 | 3.5 | 7.8 | 0.00 | 0.00 | 0.00 | 89 | 1006.8 |
| 20260505111301 | 73 | 47 | 2.6 | 6.1 | 0.00 | 0.00 | 0.00 | 89 | 1006.7 |
| 20260505111201 | 73 | 32 | 1.7 | 7.8 | 0.00 | 0.00 | 0.00 | 89 | 1006.7 |
| 20260505111101 | 73 | 31 | 2.6 | 7.8 | 0.00 | 0.00 | 0.00 | 89 | 1006.6 |
| 20260505111002 | 73 | 32 | 1.7 | 8.7 | 0.00 | 0.00 | 0.00 | 89 | 1006.6 |
| 20260505110902 | 73 | 25 | 0.9 | 8.7 | 0.00 | 0.00 | 0.00 | 90 | 1006.5 |
| 20260505110800 | 73 | 32 | 1.7 | 8.7 | 0.00 | 0.00 | 0.00 | 90 | 1006.5 |
| 20260505110659 | 73 | 30 | 2.6 | 8.7 | 0.00 | 0.00 | 0.00 | 90 | 1006.6 |
| 20260505110559 | 73 | 21 | 2.6 | 8.7 | 0.00 | 0.00 | 0.00 | 90 | 1006.5 |
| 20260505110500 | 73 | 42 | 3.5 | 8.7 | 0.00 | 0.00 | 0.00 | 89 | 1006.5 |
| 20260505110359 | 73 | 47 | 3.5 | 8.7 | 0.00 | 0.00 | 0.00 | 89 | 1006.6 |
| 20260505110259 | 73 | 48 | 2.6 | 8.7 | 0.00 | 0.00 | 0.00 | 90 | 1006.7 |
| 20260505110201 | 73 | 34 | 3.5 | 8.7 | 0.00 | 0.00 | 0.00 | 90 | 1006.7 |
| 20260505102159 | 73 | 35 | 1.7 | 11.3 | 0.00 | 0.00 | 0.00 | 90 | 1006.6 |
| 20260505102101 | 73 | 35 | 3.5 | 11.3 | 0.00 | 0.00 | 0.00 | 90 | 1006.6 |
| 20260505102000 | 73 | 48 | 5.2 | 11.3 | 0.00 | 0.00 | 0.00 | 90 | 1006.7 |
| 20260505101858 | 73 | 45 | 4.3 | 11.3 | 0.00 | 0.00 | 0.00 | 90 | 1006.7 |
| 20260505101759 | 73 | 44 | 3.5 | 6.1 | 0.00 | 0.00 | 0.00 | 90 | 1006.6 |
| 20260505101659 | 73 | 27 | 2.6 | 4.3 | 0.00 | 0.00 | 0.00 | 90 | 1006.6 |
| 20260505101558 | 73 | 31 | 2.6 | 4.3 | 0.00 | 0.00 | 0.00 | 90 | 1006.7 |
| 20260505101459 | 73 | 34 | 1.7 | 4.3 | 0.00 | 0.00 | 0.00 | 90 | 1006.7 |
| 20260505101359 | 73 | 37 | 0.9 | 7.8 | 0.00 | 0.00 | 0.00 | 89 | 1006.8 |
| 20260505101258 | 73 | 17 | 1.7 | 8.7 | 0.00 | 0.00 | 0.00 | 89 | 1006.8 |
| 20260505101158 | 73 | 31 | 2.6 | 9.6 | 0.00 | 0.00 | 0.00 | 89 | 1006.8 |
| 20260505101058 | 73 | 35 | 2.6 | 9.6 | 0.00 | 0.00 | 0.00 | 90 | 1006.8 |
| 20260505100959 | 73 | 42 | 2.6 | 9.6 | 0.00 | 0.00 | 0.00 | 90 | 1006.9 |
| 20260505100900 | 73 | 44 | 1.7 | 9.6 | 0.00 | 0.00 | 0.00 | 90 | 1006.9 |
| 20260505100758 | 73 | 44 | 0.9 | 9.6 | 0.00 | 0.00 | 0.00 | 90 | 1006.9 |
| 20260505100659 | 73 | 49 | 1.7 | 9.6 | 0.00 | 0.00 | 0.00 | 90 | 1006.9 |
| 20260505100558 | 73 | 41 | 3.5 | 9.6 | 0.00 | 0.00 | 0.00 | 90 | 1006.9 |
| 20260505100458 | 73 | 44 | 4.3 | 9.6 | 0.00 | 0.00 | 0.00 | 90 | 1006.9 |
| 20260505100359 | 73 | 37 | 4.3 | 9.6 | 0.00 | 0.00 | 0.00 | 89 | 1006.9 |
| 20260505100259 | 73 | 39 | 3.5 | 9.6 | 0.00 | 0.00 | 0.00 | 90 | 1006.9 |
| 20260505100158 | 73 | 42 | 3.5 | 10.4 | 0.00 | 0.00 | 0.00 | 90 | 1006.9 |
| 20260505100058 | 72 | 48 | 3.5 | 10.4 | 0.00 | 0.00 | 0.00 | 90 | 1006.9 |
| 20260505100000 | 72 | 44 | 2.6 | 10.4 | 0.00 | 0.00 | 0.00 | 90 | 1006.9 |
| 20260505095858 | 72 | 48 | 1.7 | 10.4 | 0.00 | 0.00 | 0.00 | 90 | 1006.9 |
| 20260505095759 | 72 | 34 | 1.7 | 10.4 | 0.00 | 0.00 | 0.00 | 90 | 1006.8 |
| 20260505095700 | 72 | 39 | 2.6 | 10.4 | 0.00 | 0.00 | 0.00 | 90 | 1006.9 |
| 20260505095559 | 72 | 37 | 3.5 | 10.4 | 0.00 | 0.00 | 0.00 | 90 | 1006.9 |
| 20260505095458 | 72 | 47 | 3.5 | 10.4 | 0.00 | 0.00 | 0.00 | 90 | 1006.8 |
| 20260505095358 | 72 | 28 | 5.2 | 10.4 | 0.00 | 0.00 | 0.00 | 90 | 1006.8 |
| 20260505095300 | 72 | 42 | 5.2 | 10.4 | 0.00 | 0.00 | 0.00 | 90 | 1006.9 |
| 20260505095157 | 72 | 47 | 3.5 | 9.6 | 0.00 | 0.00 | 0.00 | 90 | 1006.9 |
| 20260505095058 | 72 | 35 | 2.6 | 6.1 | 0.00 | 0.00 | 0.00 | 90 | 1006.8 |
| 20260505094959 | 72 | 31 | 3.5 | 6.1 | 0.00 | 0.00 | 0.00 | 90 | 1006.8 |
| 20260505094859 | 72 | 38 | 3.5 | 6.1 | 0.00 | 0.00 | 0.00 | 90 | 1006.8 |
| 20260505094758 | 72 | 35 | 2.6 | 6.1 | 0.00 | 0.00 | 0.00 | 90 | 1006.8 |
| 20260505094658 | 72 | 24 | 3.5 | 6.1 | 0.00 | 0.00 | 0.00 | 90 | 1006.8 |
| 20260505094559 | 72 | 35 | 2.6 | 6.1 | 0.00 | 0.00 | 0.00 | 90 | 1006.8 |
| 20260505094459 | 72 | 35 | 2.6 | 6.1 | 0.00 | 0.00 | 0.00 | 90 | 1006.8 |
| 20260505094358 | 72 | 38 | 2.6 | 6.1 | 0.00 | 0.00 | 0.00 | 90 | 1006.8 |
| 20260505094300 | 72 | 31 | 2.6 | 6.1 | 0.00 | 0.00 | 0.00 | 90 | 1006.7 |
| 20260505094157 | 72 | 30 | 2.6 | 6.1 | 0.00 | 0.00 | 0.00 | 90 | 1006.8 |
| 20260505094057 | 72 | 39 | 2.6 | 7.8 | 0.00 | 0.00 | 0.00 | 90 | 1006.8 |
| 20260505093959 | 72 | 39 | 1.7 | 7.8 | 0.00 | 0.00 | 0.00 | 90 | 1006.8 |
| 20260505093859 | 72 | 32 | 1.7 | 7.8 | 0.00 | 0.00 | 0.00 | 90 | 1006.8 |
| 20260505093757 | 72 | 39 | 2.6 | 7.8 | 0.00 | 0.00 | 0.00 | 90 | 1006.9 |
| 20260505093656 | 72 | 28 | 1.7 | 7.8 | 0.00 | 0.00 | 0.00 | 90 | 1006.9 |
| 20260505093555 | 72 | 37 | 1.7 | 7.8 | 0.00 | 0.00 | 0.00 | 90 | 1007.0 |
| 20260505093453 | 72 | 37 | 2.6 | 7.8 | 0.00 | 0.00 | 0.00 | 90 | 1007.0 |
| 20260505093351 | 72 | 38 | 1.7 | 7.8 | 0.00 | 0.00 | 0.00 | 90 | 1007.0 |
| 20260505093246 | 72 | 37 | 3.5 | 7.8 | 0.00 | 0.00 | 0.00 | 90 | 1007.0 |
| 20260505093144 | 72 | 37 | 3.5 | 7.8 | 0.00 | 0.00 | 0.00 | 90 | 1007.0 |
| 20260505093043 | 72 | 32 | 1.7 | 6.1 | 0.00 | 0.00 | 0.00 | 90 | 1007.0 |
| 20260505092942 | 72 | 32 | 1.7 | 6.1 | 0.00 | 0.00 | 0.00 | 90 | 1007.0 |
| 20260505092839 | 72 | 32 | 1.7 | 6.1 | 0.00 | 0.00 | 0.00 | 90 | 1007.0 |
| 20260505092738 | 72 | 37 | 1.7 | 6.1 | 0.00 | 0.00 | 0.00 | 90 | 1007.0 |
| 20260505092636 | 72 | 38 | 1.7 | 6.1 | 0.00 | 0.00 | 0.00 | 90 | 1007.0 |
| 20260505092536 | 72 | 30 | 1.7 | 6.1 | 0.00 | 0.00 | 0.00 | 90 | 1007.0 |
| 20260505092434 | 72 | 44 | 2.6 | 6.1 | 0.00 | 0.00 | 0.00 | 90 | 1007.0 |
| 20260505092333 | 72 | 35 | 2.6 | 6.1 | 0.00 | 0.00 | 0.00 | 90 | 1007.0 |
| 20260505092232 | 72 | 35 | 2.6 | 7.8 | 0.00 | 0.00 | 0.00 | 90 | 1007.1 |
| 20260505092133 | 72 | 37 | 2.6 | 7.8 | 0.00 | 0.00 | 0.00 | 90 | 1007.1 |
| 20260505092031 | 72 | 44 | 2.6 | 7.8 | 0.00 | 0.00 | 0.00 | 90 | 1007.1 |
| 20260505091930 | 72 | 42 | 2.6 | 7.8 | 0.00 | 0.00 | 0.00 | 90 | 1007.1 |
| 20260505091831 | 72 | 42 | 1.7 | 7.8 | 0.00 | 0.00 | 0.00 | 90 | 1007.0 |
| 20260505091732 | 72 | 38 | 1.7 | 7.8 | 0.00 | 0.00 | 0.00 | 90 | 1007.0 |
| 20260505091631 | 71 | 34 | 1.7 | 7.8 | 0.00 | 0.00 | 0.00 | 90 | 1007.0 |
| 20260505091529 | 72 | 34 | 2.6 | 7.8 | 0.00 | 0.00 | 0.00 | 90 | 1007.1 |
| 20260505091428 | 72 | 0 | 2.6 | 7.8 | 0.00 | 0.00 | 0.00 | 90 | 1007.0 |
| 20260505091326 | 71 | 44 | 1.7 | 7.8 | 0.00 | 0.00 | 0.00 | 90 | 1007.0 |
| 20260505091223 | 71 | 59 | 1.7 | 6.1 | 0.00 | 0.00 | 0.00 | 90 | 1007.1 |
| 20260505091124 | 71 | 39 | 2.6 | 6.1 | 0.00 | 0.00 | 0.00 | 90 | 1007.0 |
| 20260505091021 | 71 | 48 | 1.7 | 8.7 | 0.00 | 0.00 | 0.00 | 90 | 1007.1 |
| 20260505090920 | 72 | 37 | 1.7 | 8.7 | 0.00 | 0.00 | 0.00 | 90 | 1007.1 |
| 20260505090818 | 71 | 37 | 1.7 | 8.7 | 0.00 | 0.00 | 0.00 | 90 | 1007.1 |
| 20260505090718 | 72 | 45 | 1.7 | 8.7 | 0.00 | 0.00 | 0.00 | 90 | 1007.1 |
| 20260505090616 | 72 | 48 | 2.6 | 8.7 | 0.00 | 0.00 | 0.00 | 90 | 1007.1 |
| 20260505090513 | 71 | 31 | 3.5 | 8.7 | 0.00 | 0.00 | 0.00 | 90 | 1007.1 |
| 20260505090413 | 71 | 35 | 3.5 | 8.7 | 0.00 | 0.00 | 0.00 | 89 | 1007.0 |
| 20260505090311 | 72 | 37 | 2.6 | 8.7 | 0.00 | 0.00 | 0.00 | 89 | 1007.1 |
| 20260505090210 | 71 | 31 | 3.5 | 8.7 | 0.00 | 0.00 | 0.00 | 89 | 1007.1 |
| 20260505090108 | 71 | 37 | 3.5 | 8.7 | 0.00 | 0.00 | 0.00 | 89 | 1007.1 |
| 20260505090007 | 71 | 38 | 2.6 | 7.8 | 0.00 | 0.00 | 0.00 | 89 | 1007.2 |
| 20260505085907 | 72 | 42 | 1.7 | 7.8 | 0.00 | 0.00 | 0.00 | 89 | 1007.1 |
| 20260505085805 | 72 | 34 | 2.6 | 7.8 | 0.00 | 0.00 | 0.00 | 89 | 1007.1 |
| 20260505085704 | 72 | 39 | 2.6 | 7.8 | 0.00 | 0.00 | 0.00 | 89 | 1007.1 |
| 20260505085602 | 72 | 27 | 1.7 | 7.8 | 0.00 | 0.00 | 0.00 | 89 | 1007.1 |
| 20260505085505 | 72 | 41 | 3.5 | 7.8 | 0.00 | 0.00 | 0.00 | 89 | 1007.1 |
| 20260505085402 | 72 | 38 | 3.5 | 7.8 | 0.00 | 0.00 | 0.00 | 89 | 1007.0 |
| 20260505085304 | 72 | 18 | 3.5 | 7.8 | 0.00 | 0.00 | 0.00 | 89 | 1007.1 |
| 20260505085202 | 72 | 39 | 3.5 | 7.8 | 0.00 | 0.00 | 0.00 | 89 | 1007.1 |
| 20260505085103 | 72 | 45 | 3.5 | 7.8 | 0.00 | 0.00 | 0.00 | 89 | 1007.1 |
| 20260505085003 | 72 | 34 | 2.6 | 7.8 | 0.00 | 0.00 | 0.00 | 89 | 1007.1 |
| 20260505084902 | 72 | 35 | 2.6 | 7.8 | 0.00 | 0.00 | 0.00 | 89 | 1007.1 |
| 20260505084804 | 72 | 41 | 2.6 | 7.8 | 0.00 | 0.00 | 0.00 | 89 | 1007.0 |
| 20260505084702 | 72 | 38 | 2.6 | 7.8 | 0.00 | 0.00 | 0.00 | 89 | 1007.0 |
| 20260505084602 | 72 | 42 | 3.5 | 7.8 | 0.00 | 0.00 | 0.00 | 89 | 1006.9 |
| 20260505084503 | 72 | 38 | 3.5 | 7.8 | 0.00 | 0.00 | 0.00 | 89 | 1007.0 |
| 20260505084403 | 72 | 20 | 3.5 | 7.8 | 0.00 | 0.00 | 0.00 | 89 | 1007.1 |
| 20260505084302 | 72 | 32 | 3.5 | 7.8 | 0.00 | 0.00 | 0.00 | 89 | 1007.0 |
| 20260505084202 | 72 | 41 | 3.5 | 7.8 | 0.00 | 0.00 | 0.00 | 89 | 1007.1 |
| 20260505084104 | 72 | 45 | 2.6 | 5.2 | 0.00 | 0.00 | 0.00 | 89 | 1007.1 |
| 20260505084003 | 72 | 45 | 2.6 | 5.2 | 0.00 | 0.00 | 0.00 | 89 | 1007.1 |
| 20260505083903 | 72 | 24 | 2.6 | 4.3 | 0.00 | 0.00 | 0.00 | 89 | 1007.1 |
| 20260505083802 | 72 | 32 | 2.6 | 4.3 | 0.00 | 0.00 | 0.00 | 89 | 1007.2 |
| 20260505083703 | 72 | 44 | 2.6 | 4.3 | 0.00 | 0.00 | 0.00 | 89 | 1007.2 |
| 20260505083603 | 72 | 37 | 2.6 | 4.3 | 0.00 | 0.00 | 0.00 | 89 | 1007.2 |
| 20260505083503 | 72 | 47 | 2.6 | 5.2 | 0.00 | 0.00 | 0.00 | 89 | 1007.3 |
| 20260505083402 | 72 | 49 | 2.6 | 7.8 | 0.00 | 0.00 | 0.00 | 89 | 1007.3 |
| 20260505083304 | 72 | 42 | 2.6 | 7.8 | 0.00 | 0.00 | 0.00 | 89 | 1007.3 |
| 20260505083202 | 72 | 41 | 2.6 | 7.8 | 0.00 | 0.00 | 0.00 | 88 | 1007.3 |
| 20260505083102 | 72 | 34 | 2.6 | 7.8 | 0.00 | 0.00 | 0.00 | 88 | 1007.3 |
| 20260505083005 | 72 | 38 | 1.7 | 7.8 | 0.00 | 0.00 | 0.00 | 88 | 1007.3 |
| 20260505082903 | 72 | 41 | 1.7 | 7.8 | 0.00 | 0.00 | 0.00 | 88 | 1007.3 |
| 20260505082802 | 72 | 37 | 2.6 | 7.8 | 0.00 | 0.00 | 0.00 | 88 | 1007.3 |
| 20260505082703 | 72 | 45 | 2.6 | 7.8 | 0.00 | 0.00 | 0.00 | 88 | 1007.2 |
| 20260505082603 | 72 | 48 | 4.3 | 7.8 | 0.00 | 0.00 | 0.00 | 88 | 1007.4 |
| 20260505082504 | 72 | 13 | 4.3 | 7.8 | 0.00 | 0.00 | 0.00 | 88 | 1007.4 |
| 20260505082404 | 72 | 32 | 3.5 | 7.8 | 0.00 | 0.00 | 0.00 | 88 | 1007.4 |
| 20260505082304 | 72 | 41 | 3.5 | 7.8 | 0.00 | 0.00 | 0.00 | 88 | 1007.4 |
| 20260505082202 | 72 | 37 | 3.5 | 7.8 | 0.00 | 0.00 | 0.00 | 88 | 1007.4 |
| 20260505082102 | 72 | 38 | 3.5 | 7.8 | 0.00 | 0.00 | 0.00 | 88 | 1007.3 |
| 20260505082002 | 72 | 45 | 3.5 | 7.8 | 0.00 | 0.00 | 0.00 | 88 | 1007.4 |
| 20260505081903 | 72 | 45 | 4.3 | 7.8 | 0.00 | 0.00 | 0.00 | 88 | 1007.4 |
| 20260505081802 | 72 | 44 | 3.5 | 7.8 | 0.00 | 0.00 | 0.00 | 88 | 1007.4 |
| 20260505081703 | 72 | 39 | 2.6 | 5.2 | 0.00 | 0.00 | 0.00 | 88 | 1007.4 |
| 20260505081603 | 72 | 23 | 2.6 | 5.2 | 0.00 | 0.00 | 0.00 | 88 | 1007.4 |
| 20260505081502 | 72 | 38 | 3.5 | 6.1 | 0.00 | 0.00 | 0.00 | 88 | 1007.4 |
| 20260505081401 | 72 | 38 | 2.6 | 8.7 | 0.00 | 0.00 | 0.00 | 88 | 1007.4 |
| 20260505081303 | 72 | 41 | 2.6 | 8.7 | 0.00 | 0.00 | 0.00 | 88 | 1007.4 |
| 20260505081201 | 72 | 51 | 3.5 | 10.4 | 0.00 | 0.00 | 0.00 | 88 | 1007.4 |
| 20260505081059 | 72 | 37 | 2.6 | 10.4 | 0.00 | 0.00 | 0.00 | 88 | 1007.4 |
| 20260505080958 | 72 | 39 | 3.5 | 10.4 | 0.00 | 0.00 | 0.00 | 88 | 1007.5 |
| 20260505080857 | 72 | 30 | 2.6 | 10.4 | 0.00 | 0.00 | 0.00 | 88 | 1007.6 |
| 20260505080756 | 72 | 45 | 3.5 | 10.4 | 0.00 | 0.00 | 0.00 | 88 | 1007.5 |
| 20260505080655 | 72 | 48 | 4.3 | 10.4 | 0.00 | 0.00 | 0.00 | 88 | 1007.5 |
| 20260505080556 | 72 | 39 | 5.2 | 10.4 | 0.00 | 0.00 | 0.00 | 88 | 1007.5 |
| 20260505080457 | 72 | 44 | 5.2 | 10.4 | 0.00 | 0.00 | 0.00 | 88 | 1007.6 |
| 20260505080356 | 72 | 47 | 5.2 | 10.4 | 0.00 | 0.00 | 0.00 | 88 | 1007.5 |
| 20260505080256 | 72 | 49 | 4.3 | 10.4 | 0.00 | 0.00 | 0.00 | 88 | 1007.5 |
| 20260505080157 | 72 | 35 | 3.5 | 9.6 | 0.00 | 0.00 | 0.00 | 88 | 1007.5 |
| 20260505080056 | 72 | 38 | 5.2 | 9.6 | 0.00 | 0.00 | 0.00 | 88 | 1007.5 |
| 20260505075955 | 72 | 35 | 5.2 | 9.6 | 0.00 | 0.00 | 0.00 | 88 | 1007.4 |
| 20260505075855 | 72 | 49 | 3.5 | 8.7 | 0.00 | 0.00 | 0.00 | 88 | 1007.5 |
| 20260505075756 | 72 | 44 | 3.5 | 8.7 | 0.00 | 0.00 | 0.00 | 88 | 1007.5 |
| 20260505075655 | 72 | 42 | 4.3 | 8.7 | 0.00 | 0.00 | 0.00 | 88 | 1007.4 |
| 20260505075556 | 72 | 42 | 3.5 | 8.7 | 0.00 | 0.00 | 0.00 | 88 | 1007.5 |
| 20260505075456 | 72 | 37 | 3.5 | 8.7 | 0.00 | 0.00 | 0.00 | 88 | 1007.5 |
| 20260505075355 | 72 | 32 | 3.5 | 8.7 | 0.00 | 0.00 | 0.00 | 88 | 1007.5 |
| 20260505075256 | 72 | 18 | 4.3 | 8.7 | 0.00 | 0.00 | 0.00 | 88 | 1007.6 |
| 20260505075157 | 72 | 45 | 4.3 | 8.7 | 0.00 | 0.00 | 0.00 | 88 | 1007.5 |
| 20260505075055 | 72 | 39 | 3.5 | 6.1 | 0.00 | 0.00 | 0.00 | 88 | 1007.5 |
| 20260505074956 | 72 | 54 | 2.6 | 6.1 | 0.00 | 0.00 | 0.00 | 88 | 1007.6 |
| 20260505074855 | 72 | 41 | 2.6 | 6.1 | 0.00 | 0.00 | 0.00 | 88 | 1007.6 |
| 20260505074757 | 71 | 45 | 3.5 | 6.1 | 0.00 | 0.00 | 0.00 | 88 | 1007.7 |
| 20260505074655 | 71 | 39 | 3.5 | 6.1 | 0.00 | 0.00 | 0.00 | 88 | 1007.5 |
| 20260505074555 | 71 | 44 | 2.6 | 6.1 | 0.00 | 0.00 | 0.00 | 88 | 1007.6 |
| 20260505074456 | 71 | 41 | 3.5 | 6.1 | 0.00 | 0.00 | 0.00 | 88 | 1007.6 |
| 20260505074356 | 71 | 42 | 2.6 | 6.1 | 0.00 | 0.00 | 0.00 | 88 | 1007.5 |
| 20260505074255 | 71 | 35 | 2.6 | 6.1 | 0.00 | 0.00 | 0.00 | 88 | 1007.6 |
| 20260505074154 | 71 | 44 | 2.6 | 6.1 | 0.00 | 0.00 | 0.00 | 88 | 1007.6 |
| 20260505074056 | 71 | 38 | 2.6 | 6.1 | 0.00 | 0.00 | 0.00 | 88 | 1007.5 |
| 20260505073955 | 71 | 52 | 3.5 | 6.1 | 0.00 | 0.00 | 0.00 | 88 | 1007.5 |
| 20260505073856 | 71 | 49 | 3.5 | 6.1 | 0.00 | 0.00 | 0.00 | 88 | 1007.5 |
| 20260505073755 | 71 | 48 | 3.5 | 6.1 | 0.00 | 0.00 | 0.00 | 88 | 1007.5 |
| 20260505073654 | 71 | 34 | 3.5 | 5.2 | 0.00 | 0.00 | 0.00 | 88 | 1007.5 |
| 20260505073555 | 71 | 37 | 3.5 | 5.2 | 0.00 | 0.00 | 0.00 | 88 | 1007.5 |
| 20260505073456 | 71 | 44 | 2.6 | 5.2 | 0.00 | 0.00 | 0.00 | 88 | 1007.5 |
| 20260505073356 | 71 | 42 | 1.7 | 5.2 | 0.00 | 0.00 | 0.00 | 88 | 1007.5 |
| 20260505073254 | 71 | 42 | 1.7 | 5.2 | 0.00 | 0.00 | 0.00 | 88 | 1007.6 |
| 20260505073155 | 71 | 45 | 1.7 | 5.2 | 0.00 | 0.00 | 0.00 | 88 | 1007.7 |
| 20260505073056 | 71 | 34 | 2.6 | 5.2 | 0.00 | 0.00 | 0.00 | 88 | 1007.6 |
| 20260505072955 | 71 | 35 | 2.6 | 5.2 | 0.00 | 0.00 | 0.00 | 88 | 1007.6 |
| 20260505072854 | 71 | 25 | 3.5 | 5.2 | 0.00 | 0.00 | 0.00 | 88 | 1007.7 |
| 20260505072755 | 71 | 25 | 3.5 | 5.2 | 0.00 | 0.00 | 0.00 | 88 | 1007.7 |
| 20260505072657 | 71 | 39 | 2.6 | 4.3 | 0.00 | 0.00 | 0.00 | 88 | 1007.7 |
| 20260505072554 | 71 | 38 | 1.7 | 4.3 | 0.00 | 0.00 | 0.00 | 88 | 1007.7 |
| 20260505072455 | 71 | 34 | 1.7 | 4.3 | 0.00 | 0.00 | 0.00 | 88 | 1007.8 |
| 20260505072355 | 71 | 45 | 1.7 | 4.3 | 0.00 | 0.00 | 0.00 | 88 | 1007.7 |
| 20260505072254 | 71 | 38 | 1.7 | 3.5 | 0.00 | 0.00 | 0.00 | 88 | 1007.7 |
| 20260505072155 | 71 | 39 | 1.7 | 3.5 | 0.00 | 0.00 | 0.00 | 88 | 1007.8 |
| 20260505072054 | 71 | 34 | 0.9 | 3.5 | 0.00 | 0.00 | 0.00 | 88 | 1007.7 |
| 20260505071955 | 71 | 34 | 1.7 | 3.5 | 0.00 | 0.00 | 0.00 | 88 | 1007.8 |
| 20260505071854 | 71 | 35 | 1.7 | 4.3 | 0.00 | 0.00 | 0.00 | 88 | 1007.8 |
| 20260505071754 | 71 | 39 | 0.9 | 4.3 | 0.00 | 0.00 | 0.00 | 88 | 1007.9 |
| 20260505071655 | 71 | 37 | 0.9 | 4.3 | 0.00 | 0.00 | 0.00 | 88 | 1007.9 |
| 20260505071555 | 71 | 35 | 0.9 | 4.3 | 0.00 | 0.00 | 0.00 | 88 | 1007.9 |
| 20260505071455 | 71 | 38 | 1.7 | 4.3 | 0.00 | 0.00 | 0.00 | 88 | 1007.9 |
| 20260505071355 | 71 | 45 | 1.7 | 4.3 | 0.00 | 0.00 | 0.00 | 87 | 1007.8 |
| 20260505071256 | 71 | 49 | 1.7 | 4.3 | 0.00 | 0.00 | 0.00 | 88 | 1007.9 |
| 20260505071155 | 71 | 49 | 1.7 | 6.1 | 0.00 | 0.00 | 0.00 | 88 | 1007.8 |
| 20260505071055 | 71 | 49 | 1.7 | 6.1 | 0.00 | 0.00 | 0.00 | 88 | 1007.8 |
| 20260505070935 | 71 | 31 | 1.7 | 6.1 | 0.00 | 0.00 | 0.00 | 88 | 1007.9 |
| 20260505070833 | 71 | 45 | 1.7 | 6.1 | 0.00 | 0.00 | 0.00 | 88 | 1007.9 |
| 20260505070731 | 71 | 34 | 1.7 | 6.1 | 0.00 | 0.00 | 0.00 | 87 | 1007.8 |
| 20260505070630 | 71 | 27 | 1.7 | 6.1 | 0.00 | 0.00 | 0.00 | 87 | 1007.8 |
| 20260505070532 | 71 | 49 | 1.7 | 6.1 | 0.00 | 0.00 | 0.00 | 87 | 1007.8 |
| 20260505070433 | 71 | 31 | 2.6 | 6.1 | 0.00 | 0.00 | 0.00 | 87 | 1007.8 |
| 20260505070331 | 71 | 47 | 2.6 | 6.1 | 0.00 | 0.00 | 0.00 | 87 | 1007.9 |
| 20260505070231 | 71 | 44 | 2.6 | 6.1 | 0.00 | 0.00 | 0.00 | 87 | 1007.9 |
| 20260505070132 | 71 | 45 | 2.6 | 6.1 | 0.00 | 0.00 | 0.00 | 87 | 1008.0 |
| 20260505070033 | 71 | 28 | 1.7 | 5.2 | 0.00 | 0.00 | 0.00 | 87 | 1007.9 |
| 20260505065931 | 71 | 38 | 1.7 | 8.7 | 0.00 | 0.00 | 0.00 | 87 | 1008.0 |
| 20260505065832 | 71 | 27 | 2.6 | 8.7 | 0.00 | 0.00 | 0.00 | 87 | 1008.0 |
| 20260505065732 | 71 | 30 | 2.6 | 8.7 | 0.00 | 0.00 | 0.00 | 87 | 1007.9 |
| 20260505065632 | 71 | 49 | 3.5 | 8.7 | 0.00 | 0.00 | 0.00 | 87 | 1007.9 |
| 20260505065531 | 71 | 45 | 3.5 | 8.7 | 0.00 | 0.00 | 0.00 | 87 | 1007.9 |
| 20260505065434 | 71 | 37 | 3.5 | 8.7 | 0.00 | 0.00 | 0.00 | 87 | 1007.9 |
| 20260505065333 | 71 | 24 | 2.6 | 8.7 | 0.00 | 0.00 | 0.00 | 87 | 1008.0 |
| 20260505065232 | 71 | 31 | 2.6 | 8.7 | 0.00 | 0.00 | 0.00 | 87 | 1007.9 |
| 20260505065131 | 71 | 42 | 3.5 | 8.7 | 0.00 | 0.00 | 0.00 | 87 | 1007.9 |
| 20260505065030 | 71 | 38 | 3.5 | 8.7 | 0.00 | 0.00 | 0.00 | 87 | 1007.9 |
| 20260505064931 | 71 | 39 | 3.5 | 6.1 | 0.00 | 0.00 | 0.00 | 87 | 1008.0 |
| 20260505064831 | 71 | 49 | 2.6 | 6.1 | 0.00 | 0.00 | 0.00 | 87 | 1008.0 |
| 20260505064732 | 71 | 27 | 1.7 | 6.1 | 0.00 | 0.00 | 0.00 | 87 | 1008.0 |
| 20260505064632 | 71 | 31 | 2.6 | 6.1 | 0.00 | 0.00 | 0.00 | 87 | 1008.0 |
| 20260505064530 | 71 | 28 | 3.5 | 6.1 | 0.00 | 0.00 | 0.00 | 87 | 1008.0 |
| 20260505064430 | 71 | 39 | 3.5 | 6.1 | 0.00 | 0.00 | 0.00 | 87 | 1008.0 |
| 20260505064332 | 71 | 30 | 1.7 | 6.1 | 0.00 | 0.00 | 0.00 | 87 | 1008.1 |
| 20260505064232 | 71 | 38 | 1.7 | 6.1 | 0.00 | 0.00 | 0.00 | 87 | 1008.1 |
| 20260505064131 | 71 | 32 | 2.6 | 6.1 | 0.00 | 0.00 | 0.00 | 87 | 1008.1 |
| 20260505064032 | 71 | 44 | 2.6 | 6.1 | 0.00 | 0.00 | 0.00 | 87 | 1008.2 |
| 20260505063931 | 71 | 34 | 2.6 | 6.1 | 0.00 | 0.00 | 0.00 | 87 | 1008.2 |
| 20260505063831 | 71 | 44 | 2.6 | 6.1 | 0.00 | 0.00 | 0.00 | 87 | 1008.3 |
| 20260505063732 | 71 | 38 | 2.6 | 6.1 | 0.00 | 0.00 | 0.00 | 87 | 1008.2 |
| 20260505063632 | 71 | 49 | 2.6 | 6.1 | 0.00 | 0.00 | 0.00 | 87 | 1008.3 |
| 20260505063530 | 71 | 41 | 1.7 | 6.1 | 0.00 | 0.00 | 0.00 | 87 | 1008.2 |
| 20260505063431 | 71 | 47 | 1.7 | 7.8 | 0.00 | 0.00 | 0.00 | 87 | 1008.3 |
| 20260505063333 | 71 | 45 | 2.6 | 7.8 | 0.00 | 0.00 | 0.00 | 87 | 1008.4 |
| 20260505063231 | 71 | 37 | 2.6 | 7.8 | 0.00 | 0.00 | 0.00 | 87 | 1008.4 |
| 20260505063131 | 71 | 44 | 3.5 | 7.8 | 0.00 | 0.00 | 0.00 | 87 | 1008.4 |
| 20260505063032 | 71 | 44 | 3.5 | 7.8 | 0.00 | 0.00 | 0.00 | 87 | 1008.3 |
| 20260505062932 | 71 | 37 | 2.6 | 7.8 | 0.00 | 0.00 | 0.00 | 87 | 1008.3 |
| 20260505062831 | 71 | 52 | 1.7 | 7.8 | 0.00 | 0.00 | 0.00 | 87 | 1008.3 |
| 20260505062731 | 71 | 45 | 2.6 | 7.8 | 0.00 | 0.00 | 0.00 | 87 | 1008.3 |
| 20260505062633 | 71 | 39 | 3.5 | 7.8 | 0.00 | 0.00 | 0.00 | 87 | 1008.3 |
| 20260505062531 | 71 | 45 | 4.3 | 7.8 | 0.00 | 0.00 | 0.00 | 87 | 1008.4 |
| 20260505062431 | 71 | 31 | 3.5 | 7.8 | 0.00 | 0.00 | 0.00 | 87 | 1008.4 |
| 20260505062331 | 71 | 54 | 2.6 | 6.1 | 0.00 | 0.00 | 0.00 | 87 | 1008.4 |
| 20260505062230 | 71 | 35 | 3.5 | 6.1 | 0.00 | 0.00 | 0.00 | 87 | 1008.4 |
| 20260505062131 | 71 | 38 | 3.5 | 6.1 | 0.00 | 0.00 | 0.00 | 87 | 1008.5 |
| 20260505062032 | 71 | 41 | 3.5 | 6.1 | 0.00 | 0.00 | 0.00 | 87 | 1008.5 |
| 20260505061931 | 71 | 47 | 3.5 | 6.1 | 0.00 | 0.00 | 0.00 | 87 | 1008.5 |
| 20260505061831 | 71 | 37 | 3.5 | 6.1 | 0.00 | 0.00 | 0.00 | 87 | 1008.5 |
| 20260505061731 | 71 | 45 | 3.5 | 6.1 | 0.00 | 0.00 | 0.00 | 87 | 1008.5 |
| 20260505061632 | 71 | 48 | 2.6 | 6.1 | 0.00 | 0.00 | 0.00 | 86 | 1008.6 |
| 20260505061532 | 71 | 41 | 1.7 | 6.1 | 0.00 | 0.00 | 0.00 | 86 | 1008.5 |
| 20260505061431 | 71 | 34 | 1.7 | 6.1 | 0.00 | 0.00 | 0.00 | 86 | 1008.6 |
| 20260505061332 | 71 | 18 | 2.6 | 6.1 | 0.00 | 0.00 | 0.00 | 86 | 1008.6 |
| 20260505061233 | 71 | 42 | 2.6 | 6.1 | 0.00 | 0.00 | 0.00 | 86 | 1008.6 |
| 20260505061130 | 71 | 35 | 2.6 | 6.1 | 0.00 | 0.00 | 0.00 | 86 | 1008.6 |
| 20260505061029 | 71 | 31 | 3.5 | 6.1 | 0.00 | 0.00 | 0.00 | 86 | 1008.6 |
| 20260505060927 | 71 | 52 | 3.5 | 6.1 | 0.00 | 0.00 | 0.00 | 86 | 1008.5 |
| 20260505060825 | 71 | 28 | 2.6 | 6.1 | 0.00 | 0.00 | 0.00 | 86 | 1008.6 |
| 20260505060725 | 71 | 45 | 2.6 | 6.1 | 0.00 | 0.00 | 0.00 | 86 | 1008.6 |
| 20260505060620 | 71 | 32 | 2.6 | 6.1 | 0.00 | 0.00 | 0.00 | 86 | 1008.5 |
| 20260505060521 | 71 | 41 | 1.7 | 6.1 | 0.00 | 0.00 | 0.00 | 86 | 1008.5 |
| 20260505060419 | 71 | 18 | 2.6 | 6.1 | 0.00 | 0.00 | 0.00 | 86 | 1008.5 |
| 20260505060319 | 71 | 61 | 3.5 | 6.1 | 0.00 | 0.00 | 0.00 | 86 | 1008.5 |
| 20260505060217 | 71 | 35 | 2.6 | 6.1 | 0.00 | 0.00 | 0.00 | 86 | 1008.5 |
| 20260505060115 | 71 | 41 | 2.6 | 6.1 | 0.00 | 0.00 | 0.00 | 86 | 1008.5 |
| 20260505060015 | 71 | 37 | 2.6 | 6.1 | 0.00 | 0.00 | 0.00 | 86 | 1008.6 |
| 20260505055913 | 71 | 35 | 2.6 | 6.1 | 0.00 | 0.00 | 0.00 | 86 | 1008.6 |
| 20260505055812 | 71 | 42 | 3.5 | 6.1 | 0.00 | 0.00 | 0.00 | 86 | 1008.5 |
| 20260505055710 | 71 | 45 | 3.5 | 6.1 | 0.00 | 0.00 | 0.00 | 86 | 1008.6 |
| 20260505055609 | 71 | 37 | 3.5 | 6.1 | 0.00 | 0.00 | 0.00 | 86 | 1008.5 |
| 20260505055507 | 71 | 47 | 2.6 | 6.1 | 0.00 | 0.00 | 0.00 | 86 | 1008.6 |
| 20260505055407 | 71 | 39 | 2.6 | 6.1 | 0.00 | 0.00 | 0.00 | 86 | 1008.6 |
| 20260505055307 | 71 | 34 | 3.5 | 6.1 | 0.00 | 0.00 | 0.00 | 86 | 1008.5 |
| 20260505055207 | 71 | 37 | 3.5 | 6.1 | 0.00 | 0.00 | 0.00 | 86 | 1008.5 |
| 20260505055104 | 71 | 41 | 2.6 | 6.1 | 0.00 | 0.00 | 0.00 | 86 | 1008.6 |
| 20260505055003 | 71 | 38 | 3.5 | 6.1 | 0.00 | 0.00 | 0.00 | 86 | 1008.5 |
| 20260505054902 | 71 | 49 | 3.5 | 6.1 | 0.00 | 0.00 | 0.00 | 86 | 1008.6 |
| 20260505054801 | 71 | 39 | 2.6 | 5.2 | 0.00 | 0.00 | 0.00 | 86 | 1008.6 |
| 20260505054703 | 71 | 38 | 2.6 | 5.2 | 0.00 | 0.00 | 0.00 | 86 | 1008.6 |
| 20260505054602 | 71 | 37 | 3.5 | 5.2 | 0.00 | 0.00 | 0.00 | 86 | 1008.6 |
| 20260505054504 | 71 | 38 | 2.6 | 5.2 | 0.00 | 0.00 | 0.00 | 85 | 1008.6 |
| 20260505054402 | 71 | 27 | 2.6 | 5.2 | 0.00 | 0.00 | 0.00 | 85 | 1008.6 |
| 20260505054303 | 71 | 25 | 2.6 | 5.2 | 0.00 | 0.00 | 0.00 | 85 | 1008.7 |
| 20260505054202 | 71 | 31 | 2.6 | 5.2 | 0.00 | 0.00 | 0.00 | 85 | 1008.7 |
| 20260505054104 | 71 | 42 | 2.6 | 5.2 | 0.00 | 0.00 | 0.00 | 85 | 1008.7 |
| 20260505054003 | 71 | 44 | 2.6 | 5.2 | 0.00 | 0.00 | 0.00 | 85 | 1008.7 |
| 20260505053902 | 71 | 37 | 2.6 | 5.2 | 0.00 | 0.00 | 0.00 | 85 | 1008.7 |
| 20260505053802 | 71 | 35 | 2.6 | 5.2 | 0.00 | 0.00 | 0.00 | 85 | 1008.7 |
| 20260505053703 | 71 | 32 | 2.6 | 5.2 | 0.00 | 0.00 | 0.00 | 85 | 1008.7 |
| 20260505053603 | 71 | 30 | 2.6 | 5.2 | 0.00 | 0.00 | 0.00 | 85 | 1008.7 |
| 20260505053502 | 71 | 44 | 1.7 | 5.2 | 0.00 | 0.00 | 0.00 | 85 | 1008.7 |
| 20260505053402 | 71 | 49 | 1.7 | 5.2 | 0.00 | 0.00 | 0.00 | 85 | 1008.8 |
| 20260505053303 | 71 | 41 | 1.7 | 5.2 | 0.00 | 0.00 | 0.00 | 85 | 1008.8 |
| 20260505053202 | 71 | 48 | 1.7 | 6.1 | 0.00 | 0.00 | 0.00 | 85 | 1008.8 |
| 20260505053103 | 71 | 38 | 1.7 | 6.1 | 0.00 | 0.00 | 0.00 | 85 | 1008.9 |
| 20260505053002 | 71 | 27 | 2.6 | 6.1 | 0.00 | 0.00 | 0.00 | 85 | 1008.9 |
| 20260505052903 | 71 | 42 | 3.5 | 6.1 | 0.00 | 0.00 | 0.00 | 85 | 1009.0 |
| 20260505052803 | 71 | 48 | 3.5 | 6.1 | 0.00 | 0.00 | 0.00 | 85 | 1008.9 |
| 20260505052702 | 71 | 42 | 2.6 | 6.1 | 0.00 | 0.00 | 0.00 | 85 | 1008.9 |
| 20260505052602 | 71 | 42 | 2.6 | 6.1 | 0.00 | 0.00 | 0.00 | 85 | 1008.9 |
| 20260505052502 | 71 | 52 | 2.6 | 6.1 | 0.00 | 0.00 | 0.00 | 85 | 1008.9 |
| 20260505052402 | 71 | 48 | 2.6 | 6.1 | 0.00 | 0.00 | 0.00 | 85 | 1008.9 |
| 20260505052304 | 71 | 45 | 2.6 | 6.1 | 0.00 | 0.00 | 0.00 | 85 | 1008.9 |
| 20260505052202 | 71 | 47 | 1.7 | 7.8 | 0.00 | 0.00 | 0.00 | 85 | 1008.9 |
| 20260505052104 | 71 | 39 | 1.7 | 7.8 | 0.00 | 0.00 | 0.00 | 84 | 1008.9 |
| 20260505052002 | 72 | 42 | 2.6 | 7.8 | 0.00 | 0.00 | 0.00 | 84 | 1008.9 |
| 20260505051901 | 72 | 39 | 2.6 | 9.6 | 0.00 | 0.00 | 0.00 | 84 | 1009.0 |
| 20260505051802 | 72 | 45 | 2.6 | 9.6 | 0.00 | 0.00 | 0.00 | 84 | 1008.9 |
| 20260505051702 | 72 | 44 | 3.5 | 9.6 | 0.00 | 0.00 | 0.00 | 84 | 1009.0 |
| 20260505051604 | 72 | 45 | 3.5 | 9.6 | 0.00 | 0.00 | 0.00 | 84 | 1008.9 |
| 20260505051504 | 72 | 44 | 3.5 | 9.6 | 0.00 | 0.00 | 0.00 | 84 | 1009.0 |
| 20260505051402 | 72 | 41 | 4.3 | 9.6 | 0.00 | 0.00 | 0.00 | 84 | 1009.0 |
| 20260505051302 | 72 | 42 | 3.5 | 9.6 | 0.00 | 0.00 | 0.00 | 84 | 1009.0 |
| 20260505051203 | 72 | 47 | 2.6 | 9.6 | 0.00 | 0.00 | 0.00 | 84 | 1009.0 |
| 20260505051102 | 72 | 35 | 3.5 | 9.6 | 0.00 | 0.00 | 0.00 | 84 | 1009.0 |
| 20260505051002 | 72 | 49 | 3.5 | 9.6 | 0.00 | 0.00 | 0.00 | 84 | 1008.9 |
| 20260505050903 | 72 | 41 | 3.5 | 6.1 | 0.00 | 0.00 | 0.00 | 84 | 1008.9 |
| 20260505050803 | 72 | 35 | 3.5 | 6.1 | 0.00 | 0.00 | 0.00 | 84 | 1008.8 |
| 20260505050702 | 72 | 38 | 2.6 | 6.1 | 0.00 | 0.00 | 0.00 | 84 | 1008.9 |
| 20260505050603 | 72 | 39 | 2.6 | 8.7 | 0.00 | 0.00 | 0.00 | 84 | 1008.9 |
| 20260505050503 | 72 | 51 | 2.6 | 8.7 | 0.00 | 0.00 | 0.00 | 84 | 1008.9 |
| 20260505050402 | 72 | 49 | 2.6 | 8.7 | 0.00 | 0.00 | 0.00 | 84 | 1008.9 |
| 20260505050303 | 72 | 48 | 2.6 | 10.4 | 0.00 | 0.00 | 0.00 | 84 | 1008.9 |
| 20260505050203 | 72 | 37 | 3.5 | 10.4 | 0.00 | 0.00 | 0.00 | 83 | 1008.9 |